KC8P Weather Reports


time (UTC)temp
C
wind
direction
speed
KPH
gust
KPH
rain 1hr
cm
rain 24hr
cm
rain mn
cm
humidity
%
barometer
mb
20260510180138 14 230 4.8 14.5 0.00 0.81 0.00 37 1018.1
20260510180032 14 212 4.8 16.1 0.00 0.81 0.00 34 1018.1
20260510175954 15 323 4.8 16.1 0.00 0.81 0.00 35 1018.1
20260510175926 15 240 3.2 16.1 0.00 0.81 0.00 35 1018.1
20260510175820 15 292 6.4 16.1 0.00 0.81 0.00 34 1018.1
20260510175714 15 333 3.2 16.1 0.00 0.81 0.00 34 1018.1
20260510175608 13 244 4.8 17.7 0.00 0.81 0.00 36 1018.1
20260510175504 13 356 6.4 17.7 0.00 0.81 0.00 37 1017.7
20260510175447 13 320 4.8 17.7 0.00 0.81 0.00 35 1017.7
20260510175357 13 272 6.4 17.7 0.00 0.81 0.00 35 1018.1
20260510175251 13 300 11.3 17.7 0.00 0.81 0.00 34 1017.7
20260510175146 14 269 11.3 17.7 0.00 0.81 0.00 33 1018.1
20260510175041 13 301 6.4 17.7 0.00 0.81 0.00 35 1017.7
20260510174941 13 270 3.2 17.7 0.00 0.81 0.00 36 1018.1
20260510174934 13 275 4.8 17.7 0.00 0.81 0.00 34 1018.1
20260510174829 13 180 1.6 17.7 0.00 0.81 0.00 35 1017.7
20260510174723 13 240 14.5 17.7 0.00 0.81 0.00 35 1017.7
20260510174618 13 171 11.3 16.1 0.00 0.81 0.00 37 1017.7
20260510174512 14 223 6.4 16.1 0.00 0.81 0.00 35 1017.7
20260510174435 14 187 8.0 12.9 0.00 0.81 0.00 34 1017.7
20260510174407 14 250 4.8 12.9 0.00 0.81 0.00 35 1017.7
20260510174301 14 269 6.4 12.9 0.00 0.81 0.00 35 1018.1
20260510174155 15 133 6.4 12.9 0.00 0.81 0.00 34 1018.1
20260510174047 15 220 6.4 20.9 0.00 0.81 0.00 35 1017.7
20260510173925 14 242 1.6 20.9 0.00 0.81 0.00 35 1018.1
20260510173835 14 113 3.2 20.9 0.00 0.81 0.00 34 1018.1
20260510173731 14 306 1.6 20.9 0.00 0.81 0.00 36 1018.1
20260510173625 13 336 1.6 20.9 0.00 0.81 0.00 34 1017.7
20260510173521 13 233 1.6 20.9 0.00 0.81 0.00 35 1017.7
20260510173421 13 332 3.2 20.9 0.00 0.81 0.00 33 1018.1
20260510173415 13 322 3.2 20.9 0.00 0.81 0.00 34 1018.1
20260510173310 13 229 4.8 20.9 0.00 0.81 0.00 35 1018.1
20260510173205 14 132 3.2 20.9 0.00 0.81 0.00 34 1018.1
20260510173058 14 242 14.5 20.9 0.00 0.81 0.00 35 1018.1
20260510172953 14 152 1.6 16.1 0.00 0.81 0.00 35 1018.1
20260510172916 14 149 1.6 16.1 0.00 0.81 0.00 34 1017.7
20260510172848 14 237 3.2 16.1 0.00 0.81 0.00 35 1018.1
20260510172742 15 336 9.7 16.1 0.00 0.81 0.00 33 1018.1
20260510172636 15 322 6.4 11.3 0.00 0.81 0.00 34 1018.1
20260510172530 15 240 3.2 11.3 0.00 0.81 0.00 37 1017.7
20260510172425 14 213 0.0 11.3 0.00 0.81 0.00 36 1018.1
20260510172409 14 193 0.0 11.3 0.00 0.81 0.00 38 1018.1
20260510172319 14 322 1.6 11.3 0.00 0.81 0.00 35 1017.7
20260510172214 13 192 1.6 17.7 0.00 0.81 0.00 35 1017.7
20260510172107 14 334 8.0 17.7 0.00 0.81 0.00 36 1018.1
20260510172014 14 15 3.2 17.7 0.00 0.81 0.00 35 1018.1
20260510171902 14 340 3.2 17.7 0.00 0.81 0.00 35 1018.1
20260510171856 14 340 3.2 17.7 0.00 0.81 0.00 35 1018.1
20260510171750 14 286 3.2 17.7 0.00 0.81 0.00 34 1018.1
20260510171645 14 156 1.6 17.7 0.00 0.81 0.00 37 1018.1
20260510171539 13 309 4.8 17.7 0.00 0.81 0.00 41 1018.1
20260510171434 13 228 3.2 17.7 0.00 0.81 0.00 37 1017.7
20260510171356 13 206 6.4 17.7 0.00 0.81 0.00 35 1017.7
20260510171328 13 215 14.5 17.7 0.00 0.81 0.00 35 1017.7
20260510171222 13 249 1.6 16.1 0.00 0.81 0.00 37 1018.4
20260510171117 13 257 3.2 16.1 0.00 0.81 0.00 35 1017.7
20260510171012 13 244 4.8 16.1 0.00 0.81 0.00 36 1018.1
20260510170905 15 44 3.2 16.1 0.00 0.81 0.00 34 1018.1
20260510170850 15 333 11.3 16.1 0.00 0.81 0.00 33 1018.1
20260510170800 15 140 0.0 14.5 0.00 0.81 0.00 38 1018.4
20260510170654 15 120 0.0 20.9 0.00 0.81 0.00 34 1018.1
20260510170548 15 80 1.6 20.9 0.00 0.81 0.00 35 1018.1
20260510170442 14 140 0.0 20.9 0.00 0.81 0.00 37 1017.7
20260510170343 13 163 0.0 20.9 0.00 0.81 0.00 38 1018.1
20260510170337 13 228 1.6 20.9 0.00 0.81 0.00 36 1018.1
20260510170231 13 101 1.6 20.9 0.00 0.81 0.00 39 1018.1
20260510170125 12 326 6.4 20.9 0.00 0.81 0.00 36 1018.4
20260510170020 12 343 4.8 20.9 0.00 0.81 0.00 37 1018.1
20260510165914 13 1 6.4 20.9 0.00 0.81 0.00 37 1018.1
20260510165837 13 283 9.7 20.9 0.00 0.81 0.00 36 1018.1
20260510165808 13 27 9.7 20.9 0.00 0.81 0.00 36 1018.1
20260510165703 13 329 9.7 12.9 0.00 0.81 0.00 36 1018.1
20260510165558 13 334 9.7 12.9 0.00 0.81 0.00 36 1018.1
20260510165452 13 349 6.4 12.9 0.00 0.81 0.00 35 1018.1
20260510165347 13 113 1.6 14.5 0.00 0.81 0.00 36 1018.1
20260510165331 13 103 6.4 14.5 0.00 0.81 0.00 35 1018.1
20260510165240 14 320 6.4 14.5 0.00 0.81 0.00 35 1018.1
20260510165135 14 352 4.8 14.5 0.00 0.81 0.00 35 1018.1
20260510165029 14 297 3.2 14.5 0.00 0.81 0.00 34 1018.1
20260510164923 14 344 1.6 14.5 0.00 0.81 0.00 33 1017.7
20260510164817 14 41 6.4 14.5 0.00 0.81 0.00 34 1017.7
20260510164711 13 2 1.6 14.5 0.00 0.81 0.00 33 1018.1
20260510164607 13 333 6.4 14.5 0.00 0.81 0.00 36 1018.1
20260510164501 13 34 8.0 14.5 0.00 0.81 0.00 34 1018.1
20260510164355 13 316 1.6 12.9 0.00 0.81 0.00 38 1018.1
20260510164318 13 258 3.2 12.9 0.00 0.81 0.00 38 1018.1
20260510164251 13 239 6.4 12.9 0.00 0.81 0.00 36 1018.1
20260510164144 13 114 8.0 12.9 0.00 0.81 0.00 34 1018.1
20260510164038 13 221 8.0 12.9 0.00 0.81 0.00 39 1018.1
20260510163932 13 327 1.6 12.9 0.00 0.81 0.00 38 1018.1
20260510163826 13 279 3.2 12.9 0.00 0.81 0.00 39 1018.1
20260510163810 13 274 4.8 12.9 0.00 0.81 0.00 38 1018.1
20260510163720 13 314 9.7 12.9 0.00 0.81 0.00 36 1018.1
20260510163615 13 19 3.2 12.9 0.00 0.81 0.00 37 1018.1
20260510163510 13 13 8.0 12.9 0.00 0.81 0.00 37 1018.1
20260510163404 14 325 4.8 9.7 0.00 0.81 0.00 35 1018.1
20260510163304 14 2 3.2 9.7 0.00 0.81 0.00 37 1018.1
20260510163257 14 207 4.8 9.7 0.00 0.81 0.00 35 1018.1
20260510163152 14 3 3.2 11.3 0.00 0.81 0.00 36 1018.1
20260510163046 14 293 3.2 16.1 0.00 0.81 0.00 37 1018.1
20260510162940 13 296 1.6 16.1 0.00 0.81 0.00 39 1018.1
20260510162834 13 145 0.0 16.1 0.00 0.81 0.00 38 1018.1
20260510162757 13 136 3.2 16.1 0.00 0.81 0.00 36 1018.1
20260510162728 13 129 1.6 16.1 0.00 0.81 0.00 40 1018.1
20260510162623 13 344 3.2 16.1 0.00 0.81 0.00 38 1018.1
20260510162517 13 224 4.8 16.1 0.00 0.81 0.00 39 1018.1
20260510162411 13 342 3.2 16.1 0.00 0.81 0.00 37 1018.1
20260510162306 13 210 4.8 16.1 0.00 0.81 0.00 35 1018.1
20260510162250 13 252 6.4 16.1 0.00 0.81 0.00 37 1018.1
20260510162201 14 280 9.7 16.1 0.00 0.81 0.00 36 1018.1
20260510162054 14 228 3.2 9.7 0.00 0.81 0.00 37 1017.7
20260510161950 14 306 4.8 9.7 0.00 0.81 0.00 38 1017.7
20260510161844 13 238 1.6 9.7 0.00 0.81 0.00 37 1017.7
20260510161739 14 139 3.2 9.7 0.00 0.81 0.00 35 1018.1
20260510161633 14 202 3.2 11.3 0.00 0.81 0.00 34 1018.1
20260510161527 13 225 3.2 11.3 0.00 0.81 0.00 39 1018.1
20260510161422 13 154 1.6 11.3 0.00 0.81 0.00 39 1018.1
20260510161316 13 9 1.6 11.3 0.00 0.81 0.00 38 1018.1
20260510161237 13 295 4.8 11.3 0.00 0.81 0.00 37 1018.1
20260510161209 13 358 6.4 11.3 0.00 0.81 0.00 37 1018.1
20260510161104 13 346 4.8 12.9 0.00 0.81 0.00 36 1018.1
20260510160958 12 28 4.8 12.9 0.00 0.81 0.00 35 1018.1
20260510160853 12 34 3.2 12.9 0.00 0.81 0.00 37 1018.1
20260510160747 12 319 3.2 16.1 0.00 0.81 0.00 39 1018.1
20260510160731 12 303 3.2 16.1 0.00 0.81 0.00 38 1018.1
20260510160654 12 281 3.2 16.1 0.00 0.81 0.00 38 1017.7
20260510160535 12 18 9.7 16.1 0.00 0.81 0.00 36 1018.1
20260510160443 12 335 6.4 16.1 0.00 0.81 0.00 39 1017.7
20260510160337 12 326 4.8 16.1 0.00 0.81 0.00 38 1017.7
20260510160226 12 222 3.2 16.1 0.00 0.81 0.00 37 1017.7
20260510160218 12 44 4.8 16.1 0.00 0.81 0.00 36 1017.7
20260510160113 12 185 4.8 16.1 0.00 0.81 0.00 37 1018.1
20260510160008 12 306 1.6 16.1 0.00 0.81 0.00 38 1018.1
20260510155902 12 300 3.2 16.1 0.00 0.81 0.00 38 1018.1
20260510155756 13 249 6.4 9.7 0.00 0.81 0.00 37 1018.1
20260510155718 13 28 4.8 9.7 0.00 0.81 0.00 36 1018.1
20260510155651 13 280 4.8 16.1 0.00 0.81 0.00 36 1017.7
20260510155544 13 259 3.2 16.1 0.00 0.81 0.00 37 1017.7
20260510155439 13 166 3.2 16.1 0.00 0.81 0.00 36 1017.7
20260510155333 13 69 4.8 16.1 0.00 0.81 0.00 37 1018.1
20260510155227 12 325 1.6 16.1 0.00 0.81 0.00 38 1018.1
20260510155212 12 26 1.6 16.1 0.00 0.81 0.00 38 1018.1
20260510155122 12 74 1.6 16.1 0.00 0.81 0.00 39 1017.7
20260510155017 12 331 3.2 16.1 0.00 0.81 0.00 37 1018.1
20260510154911 12 335 8.0 16.1 0.00 0.81 0.00 38 1018.1
20260510154805 12 254 3.2 16.1 0.00 0.81 0.00 39 1017.7
20260510154705 12 261 9.7 14.5 0.00 0.81 0.00 38 1017.7
20260510154700 12 261 9.7 14.5 0.00 0.81 0.00 38 1017.7
20260510154554 12 319 4.8 14.5 0.00 0.81 0.00 40 1018.1
20260510154448 12 347 6.4 14.5 0.00 0.81 0.00 38 1017.7
20260510154342 12 220 4.8 14.5 0.00 0.81 0.00 40 1017.7
20260510154236 12 1 4.8 14.5 0.00 0.81 0.00 38 1017.7
20260510154159 12 339 8.0 14.5 0.00 0.81 0.00 37 1017.7
20260510154131 12 90 4.8 11.3 0.00 0.81 0.00 40 1017.7
20260510154025 12 320 4.8 11.3 0.00 0.81 0.00 40 1017.7
20260510153919 12 339 9.7 11.3 0.00 0.81 0.00 38 1017.7
20260510153814 12 326 6.4 11.3 0.00 0.81 0.00 40 1017.7
20260510153707 12 204 1.6 11.3 0.00 0.81 0.00 37 1018.1
20260510153652 12 287 3.2 11.3 0.00 0.81 0.00 37 1018.1
20260510153603 13 2 0.0 11.3 0.00 0.81 0.00 38 1017.7
20260510153458 13 320 6.4 11.3 0.00 0.81 0.00 36 1017.7
20260510153405 12 39 4.8 11.3 0.00 0.81 0.00 37 1017.7
20260510153245 12 325 0.0 11.3 0.00 0.81 0.00 41 1017.7
20260510153148 12 329 6.4 11.3 0.00 0.81 0.00 39 1018.1
20260510153140 12 326 6.4 11.3 0.00 0.81 0.00 39 1018.1
20260510153034 12 23 4.8 11.3 0.00 0.81 0.00 38 1017.7
20260510152929 13 346 3.2 11.3 0.00 0.81 0.00 39 1017.7
20260510152823 13 330 8.0 11.3 0.00 0.81 0.00 38 1017.7
20260510152717 13 226 4.8 11.3 0.00 0.81 0.00 37 1017.7
20260510152640 13 267 4.8 11.3 0.00 0.81 0.00 40 1017.3
20260510152611 13 253 1.6 11.3 0.00 0.81 0.00 39 1017.3
20260510152507 13 209 0.0 11.3 0.00 0.81 0.00 42 1017.7
20260510152400 13 259 3.2 11.3 0.00 0.81 0.00 38 1017.7
20260510152254 12 342 3.2 11.3 0.00 0.81 0.00 39 1017.7
20260510152133 12 186 1.6 11.3 0.00 0.81 0.00 40 1017.7
20260510152056 12 242 4.8 11.3 0.00 0.81 0.00 39 1017.7
20260510151938 11 157 0.0 11.3 0.00 0.81 0.00 41 1017.7
20260510151832 11 4 1.6 11.3 0.00 0.81 0.00 42 1017.7
20260510151726 11 28 6.4 11.3 0.00 0.81 0.00 41 1017.7
20260510151621 11 333 4.8 16.1 0.00 0.81 0.00 40 1017.3
20260510151515 11 348 3.2 16.1 0.00 0.81 0.00 40 1017.3
20260510151409 12 302 3.2 16.1 0.00 0.81 0.00 40 1017.3
20260510151304 12 348 6.4 16.1 0.00 0.81 0.00 38 1017.7
20260510151158 12 313 3.2 16.1 0.00 0.81 0.00 39 1017.3
20260510151120 12 204 1.6 16.1 0.00 0.81 0.00 43 1017.7
20260510151052 12 345 1.6 16.1 0.00 0.81 0.00 41 1017.7
20260510150959 12 324 6.4 16.1 0.00 0.81 0.00 39 1017.3
20260510150841 12 276 1.6 16.1 0.00 0.81 0.00 39 1017.7
20260510150736 12 53 9.7 16.1 0.00 0.81 0.00 38 1017.7
20260510150630 12 295 3.2 11.3 0.00 0.81 0.00 40 1017.7
20260510150613 12 318 3.2 11.3 0.00 0.81 0.00 40 1017.7
20260510150524 12 65 3.2 11.3 0.00 0.81 0.00 41 1017.7
20260510150419 12 40 1.6 11.3 0.00 0.81 0.00 44 1017.7
20260510150313 11 119 0.0 11.3 0.00 0.81 0.00 43 1017.3
20260510150208 11 240 4.8 11.3 0.00 0.81 0.00 43 1017.3
20260510150108 11 227 4.8 11.3 0.00 0.81 0.00 41 1017.3
20260510145955 11 351 1.6 11.3 0.00 0.81 0.00 42 1017.3
20260510145849 11 303 1.6 11.3 0.00 0.81 0.00 41 1017.3
20260510145745 11 333 6.4 11.3 0.00 0.81 0.00 41 1017.7
20260510145639 11 31 1.6 11.3 0.00 0.81 0.00 43 1017.3
20260510145601 11 2 4.8 12.9 0.00 0.81 0.00 42 1017.3
20260510145533 11 348 4.8 14.5 0.00 0.81 0.00 42 1016.9
20260510145428 11 309 3.2 14.5 0.00 0.81 0.00 41 1017.3
20260510145321 11 312 6.4 14.5 0.00 0.81 0.00 42 1017.3
20260510145216 11 65 4.8 14.5 0.00 0.81 0.00 41 1017.3
20260510145110 11 35 4.8 14.5 0.00 0.81 0.00 42 1017.3
20260510145054 11 35 4.8 14.5 0.00 0.81 0.00 42 1017.3
20260510145003 11 49 3.2 14.5 0.00 0.81 0.00 44 1017.3
20260510144857 11 286 3.2 14.5 0.00 0.81 0.00 45 1017.3
20260510144752 11 257 1.6 14.5 0.00 0.81 0.00 43 1017.3
20260510144647 11 224 9.7 14.5 0.00 0.81 0.00 42 1017.3
20260510144540 11 231 4.8 6.4 0.00 0.81 0.00 44 1017.3
20260510144435 11 118 0.0 6.4 0.00 0.81 0.00 41 1017.3
20260510144330 11 160 1.6 6.4 0.00 0.81 0.00 41 1016.9
20260510144224 11 324 1.6 6.4 0.00 0.81 0.00 41 1016.9
20260510144118 11 255 4.8 6.4 0.00 0.81 0.00 41 1017.3
20260510144040 12 330 4.8 6.4 0.00 0.81 0.00 44 1017.3
20260510144012 12 276 1.6 6.4 0.00 0.81 0.00 42 1017.3
20260510143907 12 344 3.2 6.4 0.00 0.81 0.00 41 1017.3
20260510143801 11 252 0.0 6.4 0.00 0.81 0.00 45 1016.9
20260510143655 11 344 0.0 6.4 0.00 0.81 0.00 43 1016.9
20260510143550 12 335 3.2 6.4 0.00 0.81 0.00 42 1016.9
20260510143534 12 326 3.2 6.4 0.00 0.81 0.00 42 1016.9
20260510143443 12 292 3.2 9.7 0.00 0.81 0.00 41 1016.9
20260510143338 12 44 1.6 9.7 0.00 0.81 0.00 41 1017.3
20260510143233 11 40 1.6 9.7 0.00 0.81 0.00 45 1016.9
20260510143127 11 217 0.0 9.7 0.00 0.81 0.00 43 1016.9
20260510143027 11 4 1.6 9.7 0.00 0.81 0.00 42 1016.9
20260510143021 11 101 4.8 9.7 0.00 0.81 0.00 42 1016.9
20260510142916 11 307 3.2 9.7 0.00 0.81 0.00 41 1016.9
20260510142810 11 338 1.6 9.7 0.00 0.81 0.00 41 1016.9
20260510142704 11 320 3.2 11.3 0.00 0.81 0.00 44 1016.9
20260510142558 11 326 3.2 12.9 0.00 0.81 0.00 42 1016.9
20260510142521 11 318 4.8 12.9 0.00 0.81 0.00 42 1016.9
20260510142453 11 302 4.8 12.9 0.00 0.81 0.00 42 1016.9
20260510142347 11 251 3.2 12.9 0.00 0.81 0.00 45 1016.9
20260510142242 11 323 3.2 12.9 0.00 0.81 0.00 44 1016.9
20260510142137 10 16 4.8 12.9 0.00 0.81 0.00 44 1017.3
20260510142014 10 269 1.6 12.9 0.00 0.81 0.00 43 1017.3
20260510141924 10 338 3.2 12.9 0.00 0.81 0.00 43 1016.9
20260510141818 11 244 3.2 12.9 0.00 0.81 0.00 43 1016.9
20260510141714 11 283 8.0 12.9 0.00 0.81 0.00 42 1016.9
20260510141608 11 324 3.2 11.3 0.00 0.81 0.00 43 1016.9
20260510141509 11 125 0.0 11.3 0.00 0.81 0.00 46 1016.9
20260510141502 11 99 1.6 11.3 0.00 0.81 0.00 47 1016.9
20260510141356 11 256 1.6 11.3 0.00 0.81 0.00 45 1016.9
20260510141251 11 195 4.8 11.3 0.00 0.81 0.00 45 1016.9
20260510141145 11 339 3.2 11.3 0.00 0.81 0.00 48 1016.9
20260510141039 10 89 0.0 11.3 0.00 0.81 0.00 46 1016.9
20260510141002 10 78 3.2 11.3 0.00 0.81 0.00 46 1016.9
20260510140934 10 76 4.8 11.3 0.00 0.81 0.00 46 1016.9
20260510140828 10 25 6.4 11.3 0.00 0.81 0.00 46 1016.9
20260510140722 10 351 1.6 9.7 0.00 0.81 0.00 47 1016.9
20260510140617 10 345 3.2 12.9 0.00 0.81 0.00 46 1016.9
20260510140511 10 45 3.2 12.9 0.00 0.81 0.00 46 1016.9
20260510140456 10 321 3.2 12.9 0.00 0.81 0.00 46 1016.9
20260510140405 10 14 1.6 12.9 0.00 0.81 0.00 47 1016.9
20260510140300 10 13 6.4 12.9 0.00 0.81 0.00 47 1016.9
20260510140101 10 247 1.6 12.9 0.00 0.81 0.00 47 1016.9
20260510135949 10 331 3.2 12.9 0.00 0.81 0.00 47 1016.9
20260510135942 10 115 4.8 12.9 0.00 0.81 0.00 47 1017.3
20260510135840 10 322 1.6 12.9 0.00 0.81 0.00 47 1016.9
20260510135731 10 358 9.7 12.9 0.00 0.81 0.00 46 1016.9
20260510135625 10 40 4.8 12.9 0.00 0.81 0.00 47 1016.9
20260510135521 10 292 8.0 12.9 0.00 0.81 0.00 45 1016.9
20260510135443 10 345 3.2 6.4 0.00 0.81 0.00 47 1016.9
20260510135415 10 221 0.0 6.4 0.00 0.81 0.00 47 1016.9
20260510135310 10 131 3.2 9.7 0.00 0.81 0.00 47 1016.9
20260510135204 10 193 3.2 9.7 0.00 0.81 0.00 46 1016.9
20260510135058 10 102 0.0 9.7 0.00 0.81 0.00 48 1016.9
20260510134936 10 339 3.2 9.7 0.00 0.81 0.00 48 1016.9
20260510134741 10 269 6.4 9.7 0.00 0.81 0.00 47 1016.9
20260510134635 9 213 1.6 9.7 0.00 0.81 0.00 48 1016.9
20260510134530 9 227 1.6 14.5 0.00 0.81 0.00 49 1016.9
20260510134430 10 325 6.4 14.5 0.00 0.81 0.00 48 1016.9
20260510134423 10 358 6.4 14.5 0.00 0.81 0.00 47 1016.9
20260510134317 10 344 6.4 14.5 0.00 0.81 0.00 46 1016.9
20260510134211 10 356 4.8 14.5 0.00 0.81 0.00 48 1016.9
20260510134107 10 22 3.2 14.5 0.00 0.81 0.00 48 1016.9
20260510134001 9 113 1.6 14.5 0.00 0.81 0.00 49 1016.9
20260510133923 9 27 1.6 14.5 0.00 0.81 0.00 49 1016.9
20260510133855 9 25 1.6 14.5 0.00 0.81 0.00 50 1016.9
20260510133749 9 320 1.6 14.5 0.00 0.81 0.00 49 1016.9
20260510133643 9 349 3.2 14.5 0.00 0.81 0.00 49 1016.9
20260510133538 9 332 1.6 14.5 0.00 0.81 0.00 49 1016.9
20260510133432 9 320 4.8 14.5 0.00 0.81 0.00 49 1016.9
20260510133417 9 273 3.2 14.5 0.00 0.81 0.00 48 1016.9
20260510133326 9 1 6.4 14.5 0.00 0.81 0.00 48 1016.6
20260510133221 9 350 6.4 14.5 0.00 0.81 0.00 49 1016.9
20260510133116 9 343 6.4 11.3 0.00 0.81 0.00 48 1016.9
20260510133010 9 243 6.4 9.7 0.00 0.81 0.00 49 1016.9
20260510132911 10 317 6.4 6.4 0.00 0.81 0.00 49 1016.6
20260510132759 10 339 1.6 6.4 0.00 0.81 0.00 50 1016.6
20260510132653 10 186 3.2 6.4 0.00 0.81 0.00 52 1016.6
20260510132549 10 15 3.2 6.4 0.00 0.81 0.00 49 1016.6
20260510132442 10 224 0.0 6.4 0.00 0.81 0.00 52 1016.6
20260510132404 10 157 0.0 6.4 0.00 0.81 0.00 52 1016.6
20260510132337 10 264 4.8 6.4 0.00 0.81 0.00 53 1016.6
20260510132230 10 339 1.6 6.4 0.00 0.81 0.00 52 1016.6
20260510132126 9 118 1.6 11.3 0.00 0.81 0.00 52 1016.9
20260510132019 9 3 0.0 11.3 0.00 0.81 0.00 52 1016.6
20260510131925 9 42 1.6 11.3 0.00 0.81 0.00 51 1016.9
20260510131858 9 316 4.8 11.3 0.00 0.81 0.00 51 1016.9
20260510131808 9 9 1.6 11.3 0.00 0.81 0.00 54 1016.3
20260510131702 8 228 3.2 11.3 0.00 0.81 0.00 53 1016.6
20260510131557 8 52 3.2 11.3 0.00 0.81 0.00 54 1016.6
20260510131451 8 333 3.2 11.3 0.00 0.81 0.00 53 1016.6
20260510131351 8 14 3.2 11.3 0.00 0.81 0.00 53 1016.6
20260510131345 8 43 0.0 11.3 0.00 0.81 0.00 54 1016.3
20260510131252 8 48 4.8 11.3 0.00 0.81 0.00 52 1016.6
20260510131131 8 8 6.4 11.3 0.00 0.81 0.00 53 1016.6
20260510131027 8 23 1.6 11.3 0.00 0.81 0.00 54 1016.6
20260510130921 8 278 0.0 11.3 0.00 0.81 0.00 56 1016.3
20260510130843 8 278 0.0 11.3 0.00 0.81 0.00 56 1016.3
20260510130814 8 277 1.6 11.3 0.00 0.81 0.00 55 1016.3
20260510130710 8 249 3.2 11.3 0.00 0.81 0.00 54 1016.6
20260510130604 8 279 1.6 11.3 0.00 0.81 0.00 54 1016.3
20260510130527 8 263 4.8 11.3 0.00 0.81 0.00 54 1016.6
20260510130353 8 331 4.8 11.3 0.00 0.81 0.00 53 1016.6
20260510130337 8 324 6.4 11.3 0.00 0.81 0.00 55 1016.3
20260510130246 8 38 8.0 9.7 0.00 0.81 0.00 56 1016.6
20260510130141 8 315 1.6 6.4 0.00 0.81 0.00 56 1016.3
20260510130034 8 9 3.2 9.7 0.00 0.81 0.00 58 1016.3
20260510125830 8 346 0.0 9.7 0.00 0.81 0.00 58 1016.3
20260510125823 8 293 0.0 9.7 0.00 0.81 0.00 58 1016.3
20260510125717 7 345 4.8 9.7 0.00 0.81 0.00 58 1016.3
20260510125612 7 350 4.8 9.7 0.00 0.81 0.00 57 1016.3
20260510125506 7 319 3.2 9.7 0.00 0.81 0.00 57 1016.3
20260510125400 7 301 1.6 9.7 0.00 0.81 0.00 58 1016.3
20260510125323 7 316 3.2 9.7 0.00 0.81 0.00 58 1016.3
20260510125255 7 351 6.4 9.7 0.00 0.81 0.00 57 1016.3
20260510125149 7 1 3.2 9.7 0.00 0.81 0.00 57 1016.3
20260510125044 7 341 4.8 9.7 0.00 0.81 0.00 58 1016.6
20260510124938 7 332 3.2 9.7 0.00 0.81 0.00 58 1016.6
20260510124817 7 308 3.2 9.7 0.00 0.81 0.00 58 1016.3
20260510124727 7 332 6.4 9.7 0.00 0.81 0.00 58 1016.3
20260510124621 7 338 3.2 6.4 0.00 0.81 0.00 59 1016.3
20260510124515 7 316 1.6 6.4 0.00 0.81 0.00 61 1016.6
20260510124410 7 329 0.0 6.4 0.00 0.81 0.00 60 1016.6
20260510124310 7 13 3.2 6.4 0.00 0.81 0.00 61 1016.3
20260510124304 7 356 1.6 6.4 0.00 0.81 0.00 61 1016.3
20260510124158 7 311 3.2 6.4 0.00 0.81 0.00 60 1016.3
20260510124052 7 342 1.6 6.4 0.00 0.81 0.00 60 1016.6
20260510123959 7 38 1.6 6.4 0.00 0.81 0.00 60 1016.3
20260510123841 7 16 3.2 6.4 0.00 0.81 0.00 60 1016.3
20260510123803 7 347 3.2 6.4 0.00 0.81 0.00 60 1016.3
20260510123735 7 13 1.6 6.4 0.00 0.81 0.00 61 1016.3
20260510123629 7 317 3.2 6.4 0.00 0.81 0.00 61 1016.3
20260510123524 7 346 3.2 6.4 0.00 0.81 0.00 61 1016.3
20260510123418 7 338 3.2 6.4 0.00 0.81 0.00 61 1016.3
20260510123312 7 332 1.6 6.4 0.00 0.81 0.00 62 1016.3
20260510123256 7 332 1.6 6.4 0.00 0.81 0.00 61 1016.3
20260510123206 7 43 3.2 6.4 0.00 0.81 0.00 61 1016.3
20260510123100 7 50 3.2 6.4 0.00 0.81 0.00 62 1016.3
20260510122956 7 62 4.8 6.4 0.00 0.81 0.00 62 1016.3
20260510122850 7 45 1.6 6.4 0.00 0.81 0.00 62 1016.3
20260510122751 7 4 1.6 9.7 0.00 0.81 0.00 62 1016.3
20260510122744 7 344 3.2 9.7 0.00 0.81 0.00 62 1016.3
20260510122639 7 16 1.6 9.7 0.00 0.81 0.00 62 1016.3
20260510122533 7 315 1.6 9.7 0.00 0.81 0.00 62 1016.3
20260510122427 7 332 3.2 9.7 0.00 0.81 0.00 63 1016.3
20260510122321 6 304 3.2 9.7 0.00 0.81 0.00 63 1016.3
20260510122244 6 266 3.2 9.7 0.00 0.81 0.00 64 1016.3
20260510122216 6 50 4.8 9.7 0.00 0.81 0.00 64 1016.3
20260510122112 6 331 3.2 9.7 0.00 0.81 0.00 64 1015.9
20260510122004 6 357 6.4 9.7 0.00 0.81 0.00 65 1016.3
20260510121858 6 325 3.2 9.7 0.00 0.81 0.00 65 1015.9
20260510121754 6 312 1.6 6.4 0.00 0.81 0.00 65 1015.9
20260510121738 6 243 3.2 6.4 0.00 0.81 0.00 66 1016.3
20260510121647 6 334 0.0 6.4 0.00 0.81 0.00 66 1016.3
20260510121540 6 334 0.0 6.4 0.00 0.81 0.00 66 1016.3
20260510121435 6 287 4.8 6.4 0.00 0.81 0.00 66 1015.9
20260510121329 6 330 1.6 6.4 0.00 0.81 0.00 67 1015.9
20260510121230 6 60 0.0 6.4 0.00 0.81 0.00 67 1016.3
20260510121224 6 59 0.0 6.4 0.00 0.81 0.00 67 1016.3
20260510121118 6 313 3.2 6.4 0.00 0.81 0.00 67 1015.9
20260510121012 6 211 3.2 6.4 0.00 0.81 0.00 67 1016.3
20260510120907 6 13 3.2 4.8 0.00 0.81 0.00 68 1015.9
20260510120802 6 282 1.6 4.8 0.00 0.81 0.00 68 1015.9
20260510120724 6 258 1.6 4.8 0.00 0.81 0.00 68 1016.3
20260510120655 6 259 4.8 4.8 0.00 0.81 0.00 68 1016.3
20260510120549 6 27 0.0 4.8 0.00 0.81 0.00 69 1015.9
20260510120445 6 45 1.6 6.4 0.00 0.81 0.00 68 1015.9
20260510120339 6 350 3.2 6.4 0.00 0.81 0.00 69 1015.9
20260510120233 6 341 1.6 6.4 0.00 0.81 0.00 69 1015.9
20260510120217 6 1 0.0 6.4 0.00 0.81 0.00 69 1015.9
20260510120124 6 346 1.6 6.4 0.00 0.81 0.00 69 1015.9
20260510120019 6 326 1.6 6.4 0.00 0.81 0.00 69 1015.9
20260510115913 6 328 1.6 6.4 0.00 0.81 0.00 70 1015.9
20260510115806 6 334 1.6 6.4 0.00 0.81 0.00 68 1015.9
20260510115756 5 302 3.2 9.7 0.00 0.81 0.00 70 1015.9
20260510115752 5 327 3.2 11.3 0.00 0.81 0.00 71 1015.9
20260510115747 5 328 1.6 4.8 0.00 0.81 0.00 72 1015.9
20260510115743 4 327 4.8 4.8 0.00 0.81 0.00 73 1015.3
20260510115737 6 2 3.2 6.4 0.00 0.81 0.00 69 1015.9
20260510115733 6 331 1.6 6.4 0.00 0.81 0.00 69 1015.9
20260510115724 6 343 6.4 6.4 0.00 0.81 0.00 69 1015.9
20260510115503 5 341 3.2 9.7 0.00 0.81 0.00 69 1015.9
20260510115458 6 340 1.6 6.4 0.00 0.81 0.00 69 1015.9
20260510115450 5 319 3.2 6.4 0.00 0.81 0.00 69 1015.9
20260510115441 5 351 3.2 9.7 0.00 0.81 0.00 69 1015.9
20260510115220 5 320 3.2 9.7 0.00 0.81 0.00 69 1015.6
20260510115212 5 324 4.8 9.7 0.00 0.81 0.00 70 1015.9
20260510114948 5 350 4.8 9.7 0.00 0.81 0.00 70 1015.9
20260510114939 5 5 1.6 9.7 0.00 0.81 0.00 70 1015.9
20260510114929 5 302 3.2 9.7 0.00 0.81 0.00 70 1015.9
20260510114708 5 350 4.8 9.7 0.00 0.81 0.00 70 1015.9
20260510114659 5 350 3.2 9.7 0.00 0.81 0.00 70 1015.9
20260510114440 5 323 3.2 9.7 0.00 0.81 0.00 72 1015.9
20260510114435 5 330 4.8 9.7 0.00 0.81 0.00 71 1015.6
20260510114427 5 336 4.8 9.7 0.00 0.81 0.00 72 1015.9
20260510114206 5 329 3.2 9.7 0.00 0.81 0.00 72 1015.6
20260510114157 5 315 0.0 9.7 0.00 0.81 0.00 71 1015.6
20260510113934 5 324 3.2 9.7 0.00 0.81 0.00 71 1015.9
20260510113924 5 347 3.2 9.7 0.00 0.81 0.00 71 1015.6
20260510113915 5 340 3.2 11.3 0.00 0.81 0.00 71 1015.9
20260510113654 5 309 1.6 11.3 0.00 0.81 0.00 71 1015.6
20260510113645 5 332 3.2 11.3 0.00 0.81 0.00 71 1015.6
20260510113426 5 345 4.8 11.3 0.00 0.81 0.00 72 1015.6
20260510113422 5 1 6.4 11.3 0.00 0.81 0.00 71 1015.9
20260510113413 5 346 4.8 11.3 0.00 0.81 0.00 72 1015.9
20260510113151 5 345 3.2 11.3 0.00 0.81 0.00 72 1015.6
20260510113143 5 357 3.2 11.3 0.00 0.81 0.00 72 1015.9
20260510112923 5 343 3.2 11.3 0.00 0.81 0.00 72 1015.6
20260510112915 5 331 3.2 6.4 0.00 0.81 0.00 72 1015.9
20260510112906 5 328 0.0 4.8 0.00 0.81 0.00 72 1015.6
20260510112644 5 323 3.2 4.8 0.00 0.81 0.00 72 1015.9
20260510112636 5 338 3.2 4.8 0.00 0.81 0.00 73 1015.6
20260510112411 4 323 3.2 4.8 0.00 0.81 0.00 73 1015.6
20260510112403 4 326 3.2 4.8 0.00 0.81 0.00 73 1015.6
20260510112352 4 342 1.6 4.8 0.00 0.81 0.00 73 1015.3
20260510112127 4 326 3.2 4.8 0.00 0.81 0.00 73 1015.3
20260510112118 4 326 3.2 4.8 0.00 0.81 0.00 73 1015.6
20260510111855 4 328 3.2 4.8 0.00 0.81 0.00 73 1015.3
20260510111846 4 303 1.6 4.8 0.00 0.81 0.00 73 1015.6
20260510111608 4 310 3.2 4.8 0.00 0.81 0.00 73 1015.3
20260510111504 4 340 1.6 4.8 0.00 0.81 0.00 73 1015.3
20260510111357 4 323 1.6 4.8 0.00 0.81 0.00 74 1015.6
20260510111251 4 327 3.2 4.8 0.00 0.81 0.00 74 1015.3
20260510111158 4 323 3.2 4.8 0.00 0.81 0.00 74 1015.6
20260510111118 4 315 3.2 4.8 0.00 0.81 0.00 74 1015.6
20260510111040 4 324 1.6 4.8 0.00 0.81 0.00 74 1015.6
20260510110934 4 324 1.6 4.8 0.00 0.81 0.00 75 1015.3
20260510110828 4 328 0.0 4.8 0.00 0.81 0.00 75 1015.3
20260510110722 4 328 1.6 4.8 0.00 0.81 0.00 75 1015.3
20260510110616 4 325 1.6 4.8 0.00 0.81 0.00 75 1015.3
20260510110511 4 339 3.2 4.8 0.00 0.81 0.00 75 1015.3
20260510110417 4 335 3.2 4.8 0.00 0.81 0.00 75 1015.6
20260510110259 4 330 1.6 4.8 0.00 0.81 0.00 75 1015.3
20260510110154 4 330 1.6 4.8 0.00 0.81 0.00 75 1015.3
20260510110104 3 355 1.6 4.8 0.00 0.81 0.00 75 1015.3
20260510110101 3 324 1.6 4.8 0.00 0.81 0.00 75 1015.3
20260510105942 3 326 3.2 4.8 0.00 0.81 0.00 76 1015.3
20260510105836 3 321 1.6 4.8 0.00 0.81 0.00 76 1015.3
20260510105731 3 320 1.6 4.8 0.00 0.81 0.00 76 1015.3
20260510105626 3 331 3.2 4.8 0.00 0.81 0.00 76 1015.3
20260510105558 3 320 3.2 4.8 0.00 0.81 0.00 76 1015.3
20260510105519 3 326 1.6 4.8 0.00 0.81 0.00 76 1015.3
20260510105413 3 323 1.6 4.8 0.00 0.81 0.00 76 1015.3
20260510105308 3 327 1.6 4.8 0.00 0.81 0.00 77 1015.3
20260510105203 3 315 0.0 4.8 0.00 0.81 0.00 77 1015.3
20260510105056 3 320 1.6 4.8 0.00 0.81 0.00 77 1015.3
20260510104951 3 320 0.0 4.8 0.00 0.81 0.00 77 1014.9
20260510104845 3 320 1.6 4.8 0.00 0.81 0.00 77 1014.9
20260510104739 3 324 1.6 4.8 0.00 0.81 0.00 76 1014.9
20260510104633 3 318 1.6 4.8 0.00 0.81 0.00 77 1014.9
20260510104545 3 350 3.2 4.8 0.00 0.81 0.00 77 1014.9
20260510104528 3 316 3.2 3.2 0.00 0.81 0.00 77 1014.9
20260510104422 3 313 1.6 3.2 0.00 0.81 0.00 77 1015.3
20260510104316 3 319 1.6 3.2 0.00 0.81 0.00 77 1015.3
20260510104211 3 347 3.2 3.2 0.00 0.81 0.00 77 1014.9
20260510104106 3 316 1.6 3.2 0.00 0.81 0.00 78 1015.3
20260510104039 3 312 1.6 3.2 0.00 0.81 0.00 78 1014.9
20260510103959 3 316 3.2 3.2 0.00 0.81 0.00 78 1014.9
20260510103854 3 317 0.0 3.2 0.00 0.81 0.00 78 1014.9
20260510103748 3 319 1.6 4.8 0.00 0.81 0.00 78 1014.9
20260510103643 3 320 1.6 4.8 0.00 0.81 0.00 79 1014.9
20260510103536 3 312 0.0 4.8 0.00 0.81 0.00 78 1014.9
20260510103432 3 312 0.0 4.8 0.00 0.81 0.00 78 1015.3
20260510103326 3 312 0.0 4.8 0.00 0.81 0.00 78 1014.9
20260510103220 3 313 1.6 4.8 0.00 0.81 0.00 78 1014.9
20260510103114 3 316 0.0 4.8 0.00 0.81 0.00 78 1014.9
20260510103026 3 317 1.6 4.8 0.00 0.81 0.00 78 1014.9
20260510103008 3 317 0.0 4.8 0.00 0.81 0.00 78 1014.9
20260510102902 3 330 3.2 4.8 0.00 0.81 0.00 78 1015.3
20260510102756 3 314 1.6 3.2 0.00 0.81 0.00 78 1014.9
20260510102650 3 313 1.6 3.2 0.00 0.81 0.00 78 1014.9
20260510102544 3 309 1.6 1.6 0.00 0.81 0.00 78 1014.9
20260510102516 3 309 1.6 1.6 0.00 0.81 0.00 78 1014.9
20260510102438 3 309 1.6 1.6 0.00 0.81 0.00 78 1014.9
20260510102332 3 309 1.6 1.6 0.00 0.81 0.00 78 1014.9
20260510102227 3 309 1.6 1.6 0.00 0.81 0.00 78 1014.9
20260510102121 3 310 1.6 1.6 0.00 0.81 0.00 78 1014.9
20260510102014 3 310 0.0 1.6 0.00 0.81 0.00 78 1014.6
20260510101910 3 310 0.0 1.6 0.00 0.81 0.00 78 1014.9
20260510101804 3 313 0.0 1.6 0.00 0.81 0.00 78 1014.9
20260510101738 3 310 0.0 1.6 0.00 0.81 0.00 77 1014.6
20260510101734 3 310 1.6 1.6 0.00 0.81 0.00 78 1014.9
20260510101725 3 309 0.0 1.6 0.00 0.81 0.00 77 1014.9
20260510101446 3 310 1.6 1.6 0.00 0.81 0.00 77 1014.9
20260510101340 3 310 1.6 3.2 0.00 0.81 0.00 77 1014.9
20260510101239 3 312 0.0 3.2 0.00 0.81 0.00 77 1014.6
20260510101235 3 312 0.0 3.2 0.00 0.81 0.00 77 1014.9
20260510101226 3 311 1.6 3.2 0.00 0.81 0.00 77 1014.6
20260510101218 3 312 1.6 3.2 0.00 0.81 0.00 77 1014.6
20260510100918 4 317 1.6 3.2 0.00 0.81 0.00 77 1014.9
20260510100811 4 306 1.6 3.2 0.00 0.81 0.00 77 1014.6
20260510100729 4 311 1.6 3.2 0.00 0.81 0.00 76 1014.6
20260510100720 4 316 1.6 3.2 0.00 0.81 0.00 76 1014.6
20260510100710 4 317 1.6 3.2 0.00 0.81 0.00 76 1014.6
20260510100349 4 311 1.6 3.2 0.00 0.81 0.00 76 1014.6
20260510100243 4 321 3.2 3.2 0.00 0.81 0.00 77 1014.6
20260510100137 3 321 1.6 3.2 0.00 0.81 0.00 77 1014.6
20260510100032 3 323 1.6 3.2 0.00 0.81 0.00 77 1014.6
20260510095944 3 331 3.2 3.2 0.00 0.81 0.00 78 1014.2
20260510095927 3 330 1.6 6.4 0.00 0.81 0.00 78 1014.2
20260510095821 3 337 3.2 6.4 0.00 0.81 0.00 79 1014.6
20260510095715 3 7 0.0 6.4 0.00 0.81 0.00 79 1014.2
20260510095610 3 13 1.6 6.4 0.00 0.81 0.00 78 1014.9
20260510095504 3 13 0.0 6.4 0.00 0.81 0.00 78 1014.2
20260510095438 3 13 0.0 6.4 0.00 0.81 0.00 78 1014.6
20260510095358 3 13 0.0 6.4 0.00 0.81 0.00 78 1014.6
20260510095252 3 13 0.0 6.4 0.00 0.81 0.00 78 1014.6
20260510095146 3 13 0.0 6.4 0.00 0.81 0.00 78 1014.2
20260510095043 3 13 0.0 6.4 0.00 0.81 0.00 78 1014.2
20260510094934 3 303 0.0 1.6 0.00 0.81 0.00 78 1014.2
20260510094829 3 298 1.6 1.6 0.00 0.81 0.00 78 1014.2
20260510094723 3 297 0.0 3.2 0.00 0.81 0.00 79 1014.2
20260510094618 3 309 1.6 3.2 0.00 0.81 0.00 79 1014.2
20260510094513 3 314 1.6 3.2 0.00 0.81 0.00 79 1014.6
20260510094425 3 307 1.6 3.2 0.00 0.81 0.00 79 1014.2
20260510094406 3 307 0.0 3.2 0.00 0.81 0.00 78 1014.2
20260510094300 3 307 0.0 3.2 0.00 0.81 0.00 78 1014.2
20260510094156 3 307 0.0 3.2 0.00 0.81 0.00 78 1014.2
20260510094050 3 307 0.0 3.2 0.00 0.81 0.00 78 1014.2
20260510093917 3 307 0.0 3.2 0.00 0.81 0.00 78 1014.2
20260510093838 3 308 1.6 3.2 0.00 0.81 0.00 78 1014.2
20260510093732 3 313 0.0 3.2 0.00 0.81 0.00 78 1014.2
20260510093626 3 313 0.0 3.2 0.00 0.81 0.00 78 1013.9
20260510093522 3 313 1.6 3.2 0.00 0.81 0.00 78 1014.2
20260510093415 3 313 0.0 3.2 0.00 0.81 0.00 78 1014.2
20260510093321 3 321 0.0 3.2 0.00 0.81 0.00 79 1014.2
20260510093216 3 321 0.0 3.2 0.00 0.81 0.00 78 1013.9
20260510093110 3 321 0.0 3.2 0.00 0.81 0.00 78 1014.2
20260510093005 3 321 1.6 3.2 0.00 0.81 0.00 79 1013.9
20260510092916 3 337 0.0 1.6 0.00 0.81 0.00 79 1013.9
20260510092858 3 337 0.0 1.6 0.00 0.81 0.00 79 1013.9
20260510092752 3 337 0.0 1.6 0.00 0.81 0.00 79 1014.2
20260510092647 3 337 0.0 1.6 0.00 0.81 0.00 79 1014.2
20260510092542 3 337 0.0 1.6 0.00 0.81 0.00 79 1013.9
20260510092436 3 337 0.0 1.6 0.00 0.81 0.00 79 1014.2
20260510092409 3 337 0.0 1.6 0.00 0.81 0.00 80 1014.2
20260510092330 3 337 0.0 1.6 0.00 0.81 0.00 80 1013.9
20260510092224 3 337 0.0 1.6 0.00 0.81 0.00 79 1013.9
20260510092117 3 337 0.0 1.6 0.00 0.81 0.00 80 1014.2
20260510092011 3 337 0.0 1.6 0.00 0.81 0.00 80 1013.9
20260510091905 3 337 0.0 1.6 0.00 0.81 0.00 80 1013.9
20260510091759 3 337 0.0 1.6 0.00 0.81 0.00 80 1013.9
20260510091654 3 337 0.0 1.6 0.00 0.81 0.00 80 1013.9
20260510091549 3 337 0.0 1.6 0.00 0.81 0.00 80 1013.9
20260510091443 3 338 0.0 1.6 0.00 0.81 0.00 79 1013.9
20260510091337 3 339 0.0 1.6 0.00 0.81 0.00 79 1013.9
20260510091232 3 339 0.0 1.6 0.00 0.81 0.00 79 1013.5
20260510091126 3 339 0.0 1.6 0.00 0.81 0.00 78 1013.9
20260510091020 3 339 0.0 1.6 0.00 0.81 0.00 78 1013.5
20260510090914 3 339 0.0 1.6 0.00 0.81 0.00 78 1013.9
20260510090848 3 339 0.0 1.6 0.00 0.81 0.00 78 1013.9
20260510090808 3 339 0.0 1.6 0.00 0.81 0.00 78 1013.9
20260510090703 3 339 0.0 1.6 0.00 0.81 0.00 78 1013.5
20260510090556 3 339 1.6 1.6 0.00 0.81 0.00 78 1013.5
20260510090451 3 339 0.0 1.6 0.00 0.81 0.00 78 1013.5
20260510090345 3 339 0.0 1.6 0.00 0.81 0.00 78 1013.9
20260510090240 3 339 0.0 1.6 0.00 0.81 0.00 78 1013.9
20260510090134 3 339 0.0 3.2 0.00 0.81 0.00 78 1013.5
20260510090120 4 341 0.0 3.2 0.00 0.81 0.00 78 1013.5
20260510090116 4 341 0.0 3.2 0.00 0.81 0.00 78 1013.9
20260510090105 4 341 0.0 3.2 0.00 0.81 0.00 78 1013.5
20260510085816 4 341 0.0 3.2 0.00 0.81 0.00 78 1013.5
20260510085711 4 341 1.6 3.2 0.00 0.81 0.00 78 1013.5
20260510085605 4 345 0.0 3.2 0.00 0.81 0.00 78 1013.5
20260510085500 4 345 0.0 3.2 0.00 0.81 0.00 78 1013.5
20260510085354 4 345 0.0 3.2 0.00 0.81 0.00 78 1013.5
20260510085327 4 346 0.0 3.2 0.00 0.81 0.00 78 1013.5
20260510085248 4 345 0.0 3.2 0.00 0.81 0.00 78 1013.5
20260510085140 4 359 0.0 3.2 0.00 0.81 0.00 78 1013.5
20260510085034 4 2 1.6 3.2 0.00 0.81 0.00 78 1013.5
20260510084929 4 2 0.0 3.2 0.00 0.81 0.00 78 1013.5
20260510084823 4 2 0.0 3.2 0.00 0.81 0.00 78 1013.5
20260510084718 4 2 0.0 3.2 0.00 0.81 0.00 78 1013.5
20260510084612 4 2 0.0 3.2 0.00 0.81 0.00 77 1013.5
20260510084507 4 2 0.0 3.2 0.00 0.81 0.00 77 1013.5
20260510084401 4 4 0.0 3.2 0.00 0.81 0.00 78 1013.1
20260510084313 4 3 0.0 3.2 0.00 0.81 0.00 78 1013.1
20260510084255 4 4 0.0 3.2 0.00 0.81 0.00 78 1013.1
20260510084149 4 282 1.6 3.2 0.00 0.81 0.00 78 1013.5
20260510084045 4 8 0.0 1.6 0.00 0.81 0.00 78 1013.1
20260510083938 4 8 1.6 1.6 0.00 0.81 0.00 78 1013.5
20260510083832 4 16 0.0 1.6 0.00 0.81 0.00 79 1013.1
20260510083806 4 16 0.0 1.6 0.00 0.81 0.00 79 1013.1
20260510083727 4 16 0.0 1.6 0.00 0.81 0.00 78 1013.1
20260510083622 4 22 0.0 1.6 0.00 0.81 0.00 78 1013.1
20260510083516 4 22 0.0 1.6 0.00 0.81 0.00 78 1012.8
20260510083410 4 19 0.0 1.6 0.00 0.81 0.00 78 1013.1
20260510083305 4 19 0.0 1.6 0.00 0.81 0.00 77 1013.1
20260510083159 4 19 0.0 1.6 0.00 0.81 0.00 77 1013.1
20260510083054 4 25 0.0 1.6 0.00 0.81 0.00 78 1013.1
20260510082948 4 25 0.0 1.6 0.00 0.81 0.00 77 1012.8
20260510082842 4 25 0.0 0.0 0.00 0.81 0.00 77 1013.1
20260510082753 4 25 0.0 1.6 0.00 0.81 0.00 77 1013.1
20260510082737 4 25 0.0 1.6 0.00 0.81 0.00 77 1012.8
20260510082631 4 26 0.0 1.6 0.00 0.81 0.00 76 1012.8
20260510082513 4 26 0.0 1.6 0.00 0.81 0.00 76 1012.8
20260510082408 4 26 0.0 1.6 0.00 0.81 0.00 76 1013.1
20260510082306 4 26 0.0 1.6 0.00 0.81 0.00 75 1013.1
20260510082236 4 26 0.0 1.6 0.00 0.81 0.00 76 1012.8
20260510082157 4 26 0.0 1.6 0.00 0.81 0.00 76 1012.8
20260510082050 4 26 0.0 1.6 0.00 0.81 0.00 76 1012.8
20260510081947 5 26 0.0 1.6 0.00 0.81 0.00 76 1012.8
20260510081839 5 26 0.0 1.6 0.00 0.81 0.00 76 1012.8
20260510081733 5 23 0.0 1.6 0.00 0.81 0.00 76 1012.8
20260510081627 5 23 0.0 1.6 0.00 0.81 0.00 75 1012.8
20260510081523 5 23 0.0 1.6 0.00 0.81 0.00 75 1012.4
20260510081417 5 23 0.0 1.6 0.00 0.81 0.00 75 1012.4
20260510081311 5 23 0.0 1.6 0.00 0.81 0.00 75 1012.4
20260510081223 5 23 1.6 1.6 0.00 0.81 0.00 75 1012.8
20260510081205 5 24 1.6 1.6 0.00 0.81 0.00 75 1012.8
20260510081059 5 24 1.6 1.6 0.00 0.81 0.00 75 1012.4
20260510080953 5 24 0.0 1.6 0.00 0.81 0.00 75 1012.4
20260510080848 5 26 1.6 1.6 0.00 0.81 0.00 75 1012.4
20260510080715 5 26 1.6 1.6 0.00 0.81 0.00 75 1012.4
20260510080636 5 34 0.0 1.6 0.00 0.81 0.00 75 1012.8
20260510080531 5 34 0.0 1.6 0.00 0.81 0.00 75 1012.4
20260510080425 5 34 0.0 0.0 0.00 0.81 0.00 74 1012.4
20260510080319 5 34 0.0 0.0 0.00 0.81 0.00 74 1012.4
20260510080215 5 34 0.0 0.0 0.00 0.81 0.00 74 1012.8
20260510080108 5 34 0.0 0.0 0.00 0.81 0.00 74 1012.4
20260510080004 5 34 0.0 1.6 0.00 0.81 0.00 74 1012.4
20260510075856 5 34 0.0 1.6 0.00 0.81 0.00 74 1012.4
20260510075750 5 34 0.0 1.6 0.00 0.81 0.00 73 1012.4
20260510075702 5 34 0.0 1.6 0.00 0.81 0.00 73 1012.4
20260510075645 5 34 0.0 1.6 0.00 0.81 0.00 73 1012.4
20260510075539 5 34 0.0 1.6 0.00 0.81 0.00 73 1012.4
20260510075433 5 34 0.0 1.6 0.00 0.81 0.00 73 1012.4
20260510075327 5 34 0.0 1.6 0.00 0.81 0.00 73 1012.4
20260510075222 5 34 0.0 1.6 0.00 0.81 0.00 73 1012.4
20260510075155 5 35 0.0 1.6 0.00 0.81 0.00 73 1012.4
20260510075116 5 35 0.0 1.6 0.00 0.81 0.00 74 1012.4
20260510075011 5 35 0.0 1.6 0.00 0.81 0.00 74 1012.4
20260510074906 5 32 0.0 1.6 0.00 0.81 0.00 74 1012.1
20260510074759 5 32 0.0 3.2 0.00 0.81 0.00 73 1012.1
20260510074653 6 32 0.0 3.2 0.00 0.81 0.00 73 1012.1
20260510074548 6 32 0.0 3.2 0.00 0.81 0.00 72 1012.1
20260510074442 6 31 0.0 3.2 0.00 0.81 0.00 71 1012.4
20260510074327 6 342 0.0 3.2 0.00 0.81 0.00 69 1012.4
20260510074221 6 339 0.0 3.2 0.00 0.81 0.00 69 1012.1
20260510074144 6 338 0.0 3.2 0.00 0.81 0.00 68 1012.1
20260510074116 6 337 0.0 3.2 0.00 0.81 0.00 68 1012.1
20260510074010 6 336 1.6 3.2 0.00 0.81 0.00 68 1012.1
20260510073904 6 340 1.6 3.2 0.00 0.81 0.00 68 1012.4
20260510073759 6 341 1.6 3.2 0.00 0.81 0.00 68 1012.1
20260510073654 6 342 1.6 3.2 0.00 0.81 0.00 68 1012.1
20260510073637 6 343 1.6 3.2 0.00 0.81 0.00 68 1011.8
20260510073547 6 349 1.6 3.2 0.00 0.81 0.00 68 1011.8
20260510073441 6 349 1.6 3.2 0.00 0.81 0.00 68 1012.1
20260510073335 6 359 1.6 3.2 0.00 0.81 0.00 68 1012.1
20260510073231 6 358 1.6 3.2 0.00 0.81 0.00 68 1012.1
20260510073131 6 356 0.0 3.2 0.00 0.81 0.00 68 1012.1
20260510073125 6 28 0.0 3.2 0.00 0.81 0.00 68 1012.1
20260510073019 6 351 0.0 3.2 0.00 0.81 0.00 67 1012.1
20260510072914 6 341 1.6 3.2 0.00 0.81 0.00 67 1011.8
20260510072808 6 359 0.0 3.2 0.00 0.81 0.00 67 1011.8
20260510072702 6 327 1.6 3.2 0.00 0.81 0.00 67 1011.8
20260510072625 6 336 3.2 3.2 0.00 0.81 0.00 67 1012.1
20260510072556 6 339 1.6 3.2 0.00 0.81 0.00 67 1012.1
20260510072451 6 325 1.6 3.2 0.00 0.81 0.00 67 1011.8
20260510072346 7 328 0.0 3.2 0.00 0.81 0.00 66 1011.8
20260510072240 7 334 1.6 3.2 0.00 0.81 0.00 67 1011.8
20260510072118 6 334 0.0 3.2 0.00 0.81 0.00 66 1012.1
20260510072028 6 335 3.2 3.2 0.00 0.81 0.00 67 1011.8
20260510071923 6 338 0.0 3.2 0.00 0.81 0.00 67 1011.8
20260510071817 6 333 1.6 3.2 0.00 0.81 0.00 67 1011.8
20260510071712 6 337 1.6 3.2 0.00 0.81 0.00 67 1011.8
20260510071611 6 341 1.6 3.2 0.00 0.81 0.00 67 1011.8
20260510071606 6 341 1.6 3.2 0.00 0.81 0.00 67 1011.8
20260510071459 6 342 1.6 3.2 0.00 0.81 0.00 67 1011.8
20260510071354 6 343 3.2 3.2 0.00 0.81 0.00 67 1011.8
20260510071247 6 354 1.6 3.2 0.00 0.81 0.00 67 1011.8
20260510071143 6 16 1.6 3.2 0.00 0.81 0.00 67 1011.8
20260510071105 7 18 1.6 3.2 0.00 0.81 0.00 67 1011.8
20260510071037 7 27 0.0 3.2 0.00 0.81 0.00 67 1011.8
20260510070932 7 28 1.6 3.2 0.00 0.81 0.00 67 1011.8
20260510070824 7 30 1.6 3.2 0.00 0.81 0.00 66 1011.8
20260510070720 7 25 1.6 3.2 0.00 0.81 0.00 66 1011.8
20260510070614 7 27 1.6 3.2 0.00 0.81 0.00 67 1011.8
20260510070558 7 27 1.6 3.2 0.00 0.81 0.00 67 1011.8
20260510070509 7 29 0.0 3.2 0.00 0.81 0.00 67 1011.8
20260510070402 7 29 1.6 3.2 0.00 0.81 0.00 66 1011.8
20260510070258 7 2 3.2 3.2 0.00 0.81 0.00 65 1011.8
20260510070151 7 21 0.0 3.2 0.00 0.81 0.00 65 1011.8
20260510070058 7 22 1.6 3.2 0.00 0.81 0.00 65 1011.4
20260510065939 7 359 1.6 3.2 0.00 0.81 0.00 66 1011.8
20260510065834 7 20 1.6 3.2 0.00 0.81 0.00 65 1011.8
20260510065728 7 22 1.6 3.2 0.00 0.81 0.00 65 1011.8
20260510065622 7 10 1.6 4.8 0.00 0.81 0.00 65 1011.8
20260510065545 7 5 1.6 4.8 0.00 0.81 0.00 65 1011.8
20260510065516 7 20 3.2 4.8 0.00 0.81 0.00 65 1011.8
20260510065410 7 342 1.6 4.8 0.00 0.81 0.00 65 1011.8
20260510065306 7 353 1.6 4.8 0.00 0.81 0.00 65 1011.8
20260510065200 7 350 1.6 4.8 0.00 0.81 0.00 65 1011.8
20260510065055 7 352 1.6 4.8 0.00 0.81 0.00 65 1011.8
20260510065038 7 352 1.6 4.8 0.00 0.81 0.00 65 1011.4
20260510064948 7 36 0.0 4.8 0.00 0.81 0.00 64 1011.8
20260510064843 7 23 1.6 4.8 0.00 0.81 0.00 65 1011.8
20260510064737 7 26 1.6 4.8 0.00 0.81 0.00 64 1011.8
20260510064631 7 355 1.6 3.2 0.00 0.81 0.00 65 1011.4
20260510064525 7 14 0.0 3.2 0.00 0.81 0.00 64 1011.4
20260510064420 7 18 1.6 3.2 0.00 0.81 0.00 64 1011.4
20260510064315 7 330 1.6 3.2 0.00 0.81 0.00 63 1011.4
20260510064208 7 322 1.6 3.2 0.00 0.81 0.00 63 1011.4
20260510064104 7 44 3.2 3.2 0.00 0.81 0.00 63 1011.4
20260510064025 7 34 0.0 3.2 0.00 0.81 0.00 63 1011.4
20260510063958 7 13 1.6 3.2 0.00 0.81 0.00 63 1011.4
20260510063852 7 352 3.2 4.8 0.00 0.81 0.00 63 1011.4
20260510063747 7 30 1.6 4.8 0.00 0.81 0.00 63 1011.4
20260510063640 7 27 1.6 4.8 0.00 0.81 0.00 64 1011.4
20260510063536 8 351 1.6 4.8 0.00 0.81 0.00 63 1011.1
20260510063519 8 357 1.6 4.8 0.00 0.81 0.00 63 1011.1
20260510063430 8 20 0.0 4.8 0.00 0.81 0.00 63 1011.1
20260510063324 8 33 1.6 4.8 0.00 0.81 0.00 63 1011.4
20260510063220 8 321 1.6 4.8 0.00 0.81 0.00 63 1011.1
20260510063113 8 354 0.0 4.8 0.00 0.81 0.00 64 1011.1
20260510063012 8 354 1.6 4.8 0.00 0.81 0.00 63 1011.1
20260510063006 8 346 1.6 6.4 0.00 0.81 0.00 63 1011.1
20260510062900 8 354 1.6 9.7 0.00 0.81 0.00 64 1011.4
20260510062756 8 337 3.2 9.7 0.00 0.81 0.00 63 1011.4
20260510062649 8 2 1.6 9.7 0.00 0.81 0.00 63 1011.1
20260510062544 8 340 1.6 9.7 0.00 0.81 0.00 63 1011.4
20260510062506 8 355 1.6 9.7 0.00 0.81 0.00 62 1011.4
20260510062437 8 7 3.2 9.7 0.00 0.81 0.00 62 1011.4
20260510062333 8 337 1.6 9.7 0.00 0.81 0.00 63 1011.4
20260510062226 8 334 3.2 9.7 0.00 0.81 0.00 62 1011.4
20260510062120 8 325 3.2 9.7 0.00 0.81 0.00 64 1011.4
20260510062014 8 344 6.4 9.7 0.00 0.81 0.00 64 1011.1
20260510061959 8 344 6.4 9.7 0.00 0.81 0.00 64 1011.1
20260510061911 8 341 3.2 9.7 0.00 0.81 0.00 65 1011.4
20260510061803 8 319 3.2 9.7 0.00 0.81 0.00 65 1011.4
20260510061658 8 337 3.2 9.7 0.00 0.81 0.00 64 1011.4
20260510061552 8 341 1.6 9.7 0.00 0.81 0.00 63 1011.1
20260510061446 8 341 3.2 9.7 0.00 0.81 0.00 63 1011.1
20260510061342 8 358 3.2 9.7 0.00 0.81 0.00 64 1011.1
20260510061235 8 21 4.8 9.7 0.00 0.81 0.00 64 1011.1
20260510061130 8 334 6.4 9.7 0.00 0.81 0.00 65 1011.1
20260510061025 8 47 1.6 6.4 0.00 0.81 0.00 65 1011.1
20260510060947 8 322 3.2 6.4 0.00 0.81 0.00 65 1011.1
20260510060919 8 327 1.6 9.7 0.00 0.81 0.00 65 1011.1
20260510060812 8 35 3.2 9.7 0.00 0.81 0.00 65 1011.1
20260510060707 8 1 3.2 9.7 0.00 0.81 0.00 65 1010.8
20260510060601 8 337 3.2 9.7 0.00 0.81 0.00 64 1011.1
20260510060509 8 42 1.6 9.7 0.00 0.81 0.00 65 1011.1
20260510060439 8 52 1.6 9.7 0.00 0.81 0.00 65 1011.1
20260510060350 8 334 3.2 9.7 0.00 0.81 0.00 65 1011.1
20260510060244 8 43 3.2 9.7 0.00 0.81 0.00 63 1010.8
20260510060138 8 102 4.8 9.7 0.00 0.81 0.00 64 1010.8
20260510060034 8 298 4.8 9.7 0.00 0.81 0.00 64 1011.1
20260510055934 8 12 4.8 9.7 0.00 0.81 0.00 64 1011.1
20260510055927 8 335 3.2 9.7 0.00 0.81 0.00 64 1011.1
20260510055822 8 327 4.8 9.7 0.00 0.81 0.00 64 1011.1
20260510055716 8 8 1.6 9.7 0.00 0.81 0.00 64 1011.1
20260510055611 8 324 3.2 9.7 0.00 0.81 0.00 65 1010.8
20260510055505 8 35 3.2 9.7 0.00 0.81 0.00 64 1010.8
20260510055427 8 335 1.6 9.7 0.00 0.81 0.00 64 1010.8
20260510055400 8 315 1.6 9.7 0.00 0.81 0.00 65 1010.8
20260510055254 8 326 3.2 9.7 0.00 0.81 0.00 63 1010.8
20260510055148 8 331 6.4 9.7 0.00 0.81 0.00 65 1010.8
20260510055045 8 336 4.8 4.8 0.00 0.81 0.00 65 1010.8
20260510054919 8 337 1.6 4.8 0.00 0.81 0.00 66 1010.8
20260510054829 8 351 1.6 4.8 0.00 0.81 0.00 65 1010.8
20260510054724 8 349 0.0 4.8 0.00 0.81 0.00 65 1010.8
20260510054618 8 319 1.6 4.8 0.00 0.81 0.00 65 1010.8
20260510054511 8 347 3.2 4.8 0.00 0.81 0.00 65 1010.8
20260510054414 8 343 1.6 4.8 0.00 0.81 0.00 65 1010.8
20260510054406 8 353 3.2 4.8 0.00 0.81 0.00 65 1010.8
20260510054303 8 351 3.2 4.8 0.00 0.81 0.00 64 1010.8
20260510054155 8 355 3.2 4.8 0.00 0.81 0.00 65 1010.8
20260510054050 8 323 3.2 4.8 0.00 0.81 0.00 65 1010.8
20260510053943 8 324 1.6 3.2 0.00 0.81 0.00 65 1010.4
20260510053906 8 330 1.6 3.2 0.00 0.81 0.00 65 1010.4
20260510053838 8 341 3.2 3.2 0.00 0.81 0.00 65 1010.8
20260510053626 8 340 1.6 6.4 0.00 0.81 0.00 66 1010.4
20260510053522 8 341 1.6 6.4 0.00 0.81 0.00 65 1010.4
20260510053420 8 337 1.6 6.4 0.00 0.81 0.00 65 1010.4
20260510053359 8 337 1.6 6.4 0.00 0.81 0.00 65 1010.4
20260510053310 8 341 1.6 6.4 0.00 0.81 0.00 65 1010.4
20260510053204 8 354 1.6 6.4 0.00 0.81 0.00 65 1010.4
20260510053101 8 345 0.0 6.4 0.00 0.81 0.00 65 1010.4
20260510052957 9 348 0.0 6.4 0.00 0.81 0.00 65 1010.4
20260510052851 9 352 0.0 6.4 0.00 0.81 0.00 65 1010.4
20260510052745 9 0 1.6 6.4 0.00 0.81 0.00 65 1010.4
20260510052639 9 46 0.0 4.8 0.00 0.81 0.00 65 1010.4
20260510052534 8 339 1.6 4.8 0.00 0.81 0.00 65 1010.0
20260510052429 8 333 1.6 3.2 0.00 0.81 0.00 65 1010.4
20260510052351 9 344 3.2 3.2 0.00 0.81 0.00 65 1010.4
20260510052217 9 340 1.6 3.2 0.00 0.81 0.00 65 1010.4
20260510052111 9 339 1.6 3.2 0.00 0.81 0.00 65 1010.0
20260510052006 9 353 1.6 3.2 0.00 0.81 0.00 65 1010.0
20260510051901 9 345 1.6 3.2 0.00 0.81 0.00 65 1010.4
20260510051844 9 350 1.6 3.2 0.00 0.81 0.00 65 1010.4
20260510051754 9 339 3.2 3.2 0.00 0.81 0.00 64 1010.4
20260510051648 9 359 1.6 3.2 0.00 0.81 0.00 64 1010.0
20260510051542 9 331 3.2 3.2 0.00 0.81 0.00 64 1010.4
20260510051438 9 318 1.6 4.8 0.00 0.81 0.00 64 1010.4
20260510051338 9 318 1.6 4.8 0.00 0.81 0.00 64 1010.0
20260510051332 9 317 0.0 4.8 0.00 0.81 0.00 64 1010.0
20260510051226 9 318 1.6 4.8 0.00 0.81 0.00 64 1010.4
20260510051119 9 316 3.2 4.8 0.00 0.81 0.00 64 1010.0
20260510051014 9 330 1.6 4.8 0.00 0.81 0.00 64 1010.4
20260510050942 9 24 1.6 9.7 0.00 0.81 0.00 64 1010.0
20260510050938 10 13 1.6 9.7 0.00 0.81 0.00 64 1009.6
20260510050933 9 330 1.6 4.8 0.00 0.81 0.00 64 1010.0
20260510050910 9 331 1.6 4.8 0.00 0.81 0.00 64 1010.0
20260510050906 9 330 1.6 4.8 0.00 0.81 0.00 64 1010.0
20260510050844 9 328 1.6 4.8 0.00 0.81 0.00 63 1010.4
20260510050622 9 328 1.6 4.8 0.00 0.81 0.00 63 1009.6
20260510050612 9 344 1.6 4.8 0.00 0.81 0.00 64 1009.6
20260510050603 9 24 1.6 9.7 0.00 0.81 0.00 64 1010.0
20260510050341 10 341 0.0 9.7 0.00 0.81 0.00 64 1010.0
20260510050332 9 341 1.6 9.7 0.00 0.81 0.00 63 1009.6
20260510050108 9 348 3.2 9.7 0.00 0.81 0.00 64 1010.0
20260510050058 10 343 1.6 9.7 0.00 0.81 0.00 64 1009.6
20260510045808 10 13 0.0 9.7 0.00 0.81 0.00 64 1009.6
20260510045703 10 16 1.6 9.7 0.00 0.81 0.00 64 1009.6
20260510045601 10 357 1.6 4.8 0.00 0.81 0.00 63 1009.6
20260510045557 10 329 3.2 9.7 0.00 0.81 0.00 64 1009.6
20260510045547 10 339 3.2 9.7 0.00 0.81 0.00 63 1009.6
20260510045538 10 357 1.6 4.8 0.00 0.81 0.00 64 1009.6
20260510045240 10 344 1.6 4.8 0.00 0.81 0.00 63 1009.6
20260510045134 10 345 3.2 4.8 0.00 0.81 0.00 63 1010.0
20260510045052 10 332 4.8 4.8 0.00 0.81 0.00 63 1010.0
20260510045043 10 329 3.2 4.8 0.00 0.81 0.00 63 1009.6
20260510045030 10 332 3.2 4.8 0.00 0.81 0.00 63 1009.6
20260510044710 10 329 1.6 4.8 0.00 0.81 0.00 63 1009.6
20260510044606 10 34 3.2 4.8 0.00 0.81 0.00 63 1009.6
20260510044537 10 346 1.6 4.8 0.00 0.81 0.00 63 1009.6
20260510044533 10 357 1.6 4.8 0.00 0.81 0.00 63 1009.6
20260510044524 10 326 1.6 4.8 0.00 0.81 0.00 63 1009.6
20260510044248 10 16 1.6 4.8 0.00 0.81 0.00 63 1009.6
20260510044142 10 333 3.2 4.8 0.00 0.81 0.00 63 1009.6
20260510044038 10 342 1.6 4.8 0.00 0.81 0.00 63 1009.6
20260510044029 10 330 3.2 4.8 0.00 0.81 0.00 63 1009.6
20260510044025 10 358 1.6 4.8 0.00 0.81 0.00 62 1009.6
20260510044016 10 347 3.2 4.8 0.00 0.81 0.00 63 1009.6
20260510043719 10 354 3.2 4.8 0.00 0.81 0.00 64 1009.6
20260510043613 10 331 1.6 4.8 0.00 0.81 0.00 64 1009.6
20260510043528 10 338 1.6 4.8 0.00 0.81 0.00 64 1009.6
20260510043519 10 337 1.6 4.8 0.00 0.81 0.00 63 1009.6
20260510043508 10 337 3.2 4.8 0.00 0.81 0.00 64 1009.6
20260510043153 10 351 3.2 3.2 0.00 0.81 0.00 64 1009.6
20260510043044 10 347 1.6 3.2 0.00 0.81 0.00 64 1009.3
20260510043016 10 338 1.6 3.2 0.00 0.81 0.00 64 1009.3
20260510043012 10 13 3.2 3.2 0.00 0.81 0.00 63 1009.6
20260510043002 10 340 1.6 3.2 0.00 0.81 0.00 64 1009.6
20260510042726 10 334 1.6 3.2 0.00 0.81 0.00 63 1009.3
20260510042621 10 332 1.6 3.2 0.00 0.81 0.00 63 1009.3
20260510042514 10 340 1.6 3.2 0.00 0.81 0.00 64 1009.6
20260510042408 10 339 1.6 3.2 0.00 0.81 0.00 63 1009.3
20260510042306 10 340 1.6 3.2 0.00 0.81 0.00 63 1009.6
20260510042236 10 341 1.6 3.2 0.00 0.81 0.00 64 1009.6
20260510042157 10 359 1.6 6.4 0.00 0.81 0.00 63 1009.6
20260510042052 10 331 0.0 6.4 0.00 0.81 0.00 63 1009.6
20260510041947 10 329 1.6 6.4 0.00 0.81 0.00 64 1009.3
20260510041842 10 329 0.0 6.4 0.00 0.81 0.00 64 1009.3
20260510041735 10 329 1.6 6.4 0.00 0.81 0.00 64 1009.3
20260510041630 10 328 1.6 6.4 0.00 0.81 0.00 64 1009.6
20260510041524 10 322 1.6 6.4 0.00 0.81 0.00 64 1009.6
20260510041418 10 322 0.0 6.4 0.00 0.81 0.00 64 1009.3
20260510041312 10 4 1.6 6.4 0.00 0.81 0.00 63 1009.3
20260510041224 10 323 6.4 6.4 0.00 0.81 0.00 64 1009.3
20260510041206 10 353 1.6 4.8 0.00 0.81 0.00 64 1009.3
20260510041100 10 344 0.0 4.8 0.00 0.81 0.00 64 1009.3
20260510040956 10 1 1.6 4.8 0.00 0.81 0.00 65 1009.3
20260510040849 10 348 0.0 4.8 0.00 0.81 0.00 64 1009.3
20260510040743 10 346 3.2 4.8 0.00 0.81 0.00 65 1009.0
20260510040716 10 28 1.6 4.8 0.00 0.81 0.00 64 1009.0
20260510040637 10 36 1.6 4.8 0.00 0.81 0.00 64 1009.0
20260510040531 10 18 0.0 4.8 0.00 0.81 0.00 64 1009.0
20260510040425 10 11 1.6 9.7 0.00 0.81 0.00 64 1009.0
20260510040319 10 32 0.0 9.7 0.00 0.81 0.00 64 1009.0
20260510040213 10 30 1.6 9.7 0.00 0.81 0.00 63 1009.0
20260510040109 10 20 1.6 9.7 0.00 0.81 0.00 64 1009.0
20260510040003 10 32 1.6 9.7 0.00 0.81 0.81 64 1009.3
20260510035856 11 350 1.6 9.7 0.00 0.81 0.81 65 1009.0
20260510035752 11 357 1.6 9.7 0.00 0.81 0.81 64 1009.0
20260510035703 11 351 3.2 9.7 0.00 0.81 0.81 64 1009.0
20260510035646 11 53 1.6 9.7 0.00 0.81 0.81 64 1009.0
20260510035539 11 344 6.4 9.7 0.00 0.81 0.81 64 1009.0
20260510035433 11 343 1.6 9.7 0.00 0.81 0.81 65 1009.0
20260510035327 11 346 1.6 9.7 0.00 0.81 0.81 64 1009.0
20260510035223 11 355 1.6 9.7 0.00 0.81 0.81 64 1009.0
20260510035156 11 355 3.2 9.7 0.00 0.81 0.81 64 1009.0
20260510035116 11 61 0.0 11.3 0.00 0.81 0.81 63 1009.0
20260510035011 11 343 3.2 11.3 0.00 0.81 0.81 65 1009.0
20260510034906 11 10 1.6 11.3 0.00 0.81 0.81 64 1009.0
20260510034800 11 37 1.6 11.3 0.00 0.81 0.81 64 1009.0
20260510034653 11 50 1.6 11.3 0.00 0.81 0.81 64 1009.0
20260510034548 11 337 4.8 11.3 0.00 0.81 0.81 64 1009.0
20260510034442 11 26 1.6 11.3 0.00 0.81 0.81 64 1009.0
20260510034337 11 3 1.6 11.3 0.00 0.81 0.81 64 1009.0
20260510034231 11 327 3.2 11.3 0.00 0.81 0.81 64 1009.0
20260510034125 11 22 3.2 9.7 0.00 0.81 0.81 64 1009.0
20260510034019 11 51 3.2 9.7 0.00 0.81 0.81 65 1009.0
20260510033914 11 356 1.6 9.7 0.00 0.81 0.81 65 1008.6
20260510033809 11 29 1.6 9.7 0.00 0.81 0.81 65 1009.0
20260510033703 11 26 3.2 9.7 0.00 0.81 0.81 65 1009.0
20260510033636 11 56 0.0 9.7 0.00 0.81 0.81 65 1008.6
20260510033556 11 2 1.6 9.7 0.00 0.81 0.81 65 1008.6
20260510033449 11 13 4.8 9.7 0.00 0.81 0.81 65 1008.6
20260510033345 11 35 4.8 9.7 0.00 0.81 0.81 65 1008.6
20260510033239 11 21 0.0 4.8 0.00 0.81 0.81 65 1009.0
20260510033132 11 58 1.6 4.8 0.00 0.81 0.81 65 1008.6
20260510033028 11 55 3.2 6.4 0.00 0.81 0.81 65 1008.6
20260510032922 11 71 3.2 11.3 0.00 0.81 0.81 65 1008.6
20260510032817 11 35 3.2 11.3 0.00 0.81 0.81 65 1008.6
20260510032711 11 351 1.6 11.3 0.00 0.81 0.81 64 1008.6
20260510032622 11 342 3.2 11.3 0.00 0.81 0.81 65 1008.6
20260510032604 11 72 1.6 11.3 0.00 0.81 0.81 65 1008.6
20260510032458 12 352 1.6 11.3 0.00 0.81 0.81 64 1008.6
20260510032354 12 24 1.6 11.3 0.00 0.81 0.81 64 1008.6
20260510032248 12 37 0.0 11.3 0.00 0.81 0.81 63 1008.6
20260510032155 12 348 3.2 11.3 0.00 0.81 0.81 63 1008.3
20260510032116 12 26 1.6 11.3 0.00 0.81 0.81 63 1008.3
20260510032036 12 36 4.8 11.3 0.00 0.81 0.81 63 1008.3
20260510031931 12 20 6.4 11.3 0.00 0.81 0.81 63 1008.6
20260510031826 12 47 4.8 6.4 0.00 0.81 0.81 63 1008.6
20260510031732 12 325 3.2 6.4 0.00 0.81 0.81 62 1008.6
20260510031611 12 53 3.2 9.7 0.00 0.81 0.81 62 1008.3
20260510031505 12 59 3.2 11.3 0.00 0.81 0.81 62 1008.6
20260510031400 12 48 1.6 11.3 0.00 0.81 0.81 61 1008.3
20260510031254 12 32 1.6 11.3 0.00 0.81 0.81 60 1008.3
20260510031148 13 33 1.6 11.3 0.00 0.81 0.81 59 1008.3
20260510031100 13 90 1.6 11.3 0.00 0.81 0.81 58 1008.3
20260510031043 13 63 3.2 11.3 0.00 0.81 0.81 58 1008.3
20260510030937 13 97 3.2 11.3 0.00 0.81 0.81 56 1008.3
20260510030832 13 57 3.2 11.3 0.00 0.81 0.81 54 1008.3
20260510030726 13 28 6.4 11.3 0.00 0.81 0.81 53 1008.3
20260510030620 13 330 6.4 16.1 0.00 0.81 0.81 53 1008.3
20260510030554 13 41 6.4 16.1 0.00 0.81 0.81 53 1008.3
20260510030515 13 2 6.4 16.1 0.00 0.81 0.81 53 1008.3
20260510030456 14 338 8.0 14.5 0.00 0.81 0.81 57 1006.1
20260510030452 13 36 3.2 16.1 0.00 0.81 0.81 54 1008.3
20260510030448 13 340 3.2 16.1 0.00 0.81 0.81 54 1008.3
20260510030439 13 335 0.0 16.1 0.00 0.81 0.81 54 1008.3
20260510030431 13 289 1.6 16.1 0.00 0.81 0.81 54 1008.3
20260510030420 13 36 3.2 16.1 0.00 0.81 0.81 54 1008.3
20260510030156 13 329 6.4 16.1 0.00 0.81 0.81 54 1008.3
20260510025935 14 7 1.6 12.9 0.00 0.81 0.81 51 1006.9
20260510025931 13 271 4.8 16.1 0.00 0.81 0.81 54 1007.9
20260510025922 13 329 9.7 16.1 0.00 0.81 0.81 53 1007.9
20260510025703 13 336 3.2 11.3 0.00 0.81 0.81 53 1007.9
20260510025652 13 4 1.6 11.3 0.00 0.81 0.81 53 1007.9
20260510025648 13 323 3.2 11.3 0.00 0.81 0.81 53 1007.9
20260510025427 13 335 1.6 11.3 0.00 0.81 0.81 53 1008.3
20260510025419 13 343 4.8 11.3 0.00 0.81 0.81 52 1008.3
20260510025410 13 303 4.8 11.3 0.00 0.81 0.81 54 1007.9
20260510025150 13 66 1.6 16.1 0.00 0.81 0.81 53 1007.9
20260510025140 13 274 4.8 16.1 0.00 0.81 0.81 53 1007.9
20260510025136 13 47 1.6 16.1 0.00 0.81 0.81 53 1007.9
20260510024915 15 57 1.6 12.9 0.00 0.81 0.81 50 1006.9
20260510024911 13 343 4.8 16.1 0.00 0.81 0.81 53 1007.9
20260510024902 13 330 1.6 16.1 0.00 0.81 0.81 53 1007.9
20260510024641 14 37 1.6 16.1 0.00 0.81 0.81 52 1007.9
20260510024627 14 314 3.2 16.1 0.00 0.81 0.81 51 1007.9
20260510024618 14 328 3.2 16.1 0.00 0.81 0.81 51 1007.9
20260510024359 14 329 6.4 16.1 0.00 0.81 0.81 51 1007.9
20260510024350 14 344 4.8 16.1 0.00 0.81 0.81 52 1007.9
20260510024130 14 314 6.4 14.5 0.00 0.81 0.81 52 1007.9
20260510024119 14 1 3.2 14.5 0.00 0.81 0.81 52 1007.9
20260510024115 14 353 3.2 14.5 0.00 0.81 0.81 52 1007.9
20260510024107 14 323 4.8 14.5 0.00 0.81 0.81 51 1007.9
20260510023845 14 2 3.2 11.3 0.00 0.81 0.81 52 1007.6
20260510023841 14 325 4.8 11.3 0.00 0.81 0.81 52 1007.9
20260510023833 14 311 3.2 11.3 0.00 0.81 0.81 51 1007.6
20260510023824 14 340 3.2 11.3 0.00 0.81 0.81 52 1007.6
20260510023559 14 333 3.2 11.3 0.00 0.81 0.81 51 1007.6
20260510023337 14 39 3.2 11.3 0.00 0.81 0.81 51 1007.6
20260510023333 14 284 1.6 11.3 0.00 0.81 0.81 51 1007.6
20260510023325 14 330 3.2 11.3 0.00 0.81 0.81 51 1007.6
20260510023316 14 348 1.6 11.3 0.00 0.81 0.81 51 1007.6
20260510023306 14 39 3.2 11.3 0.00 0.81 0.81 51 1007.6
20260510023047 14 30 1.6 11.3 0.00 0.81 0.81 51 1007.6
20260510022826 15 341 3.2 24.1 0.00 0.81 0.81 51 1006.6
20260510022823 14 27 3.2 11.3 0.00 0.81 0.81 51 1007.6
20260510022814 14 4 6.4 11.3 0.00 0.81 0.81 51 1007.6
20260510022552 14 335 3.2 6.4 0.00 0.81 0.81 51 1007.3
20260510022542 14 25 3.2 6.4 0.00 0.81 0.81 51 1007.3
20260510022538 14 3 3.2 6.4 0.00 0.81 0.81 51 1007.3
20260510022529 14 349 1.6 6.4 0.00 0.81 0.81 51 1007.6
20260510022311 14 315 1.6 6.4 0.00 0.81 0.81 51 1007.6
20260510022306 14 321 3.2 6.4 0.00 0.81 0.81 51 1007.6
20260510022041 14 317 1.6 11.3 0.00 0.81 0.81 51 1007.3
20260510022030 14 321 3.2 11.3 0.00 0.81 0.81 50 1007.3
20260510022026 14 344 3.2 11.3 0.00 0.81 0.81 50 1007.3
20260510022017 14 325 1.6 11.3 0.00 0.81 0.81 51 1007.6
20260510021758 14 315 3.2 11.3 0.00 0.81 0.81 50 1007.3
20260510021749 14 353 3.2 11.3 0.00 0.81 0.81 50 1007.3
20260510021523 14 25 3.2 11.3 0.00 0.81 0.81 51 1007.3
20260510021515 14 332 1.6 11.3 0.00 0.81 0.81 50 1007.3
20260510021254 14 32 3.2 11.3 0.00 0.81 0.81 51 1007.3
20260510021245 14 331 4.8 11.3 0.00 0.81 0.81 50 1007.3
20260510021237 14 299 6.4 11.3 0.00 0.81 0.81 50 1007.3
20260510021011 14 328 3.2 9.7 0.00 0.81 0.81 51 1007.3
20260510021007 14 327 3.2 9.7 0.00 0.81 0.81 51 1007.3
20260510020958 14 321 4.8 11.3 0.00 0.81 0.81 51 1007.3
20260510020738 14 322 3.2 11.3 0.00 0.81 0.81 52 1007.3
20260510020730 14 281 1.6 11.3 0.00 0.81 0.81 51 1007.3
20260510020721 14 353 3.2 12.9 0.00 0.81 0.81 51 1007.3
20260510020500 14 318 1.6 12.9 0.00 0.81 0.81 51 1006.9
20260510020451 15 308 3.2 12.9 0.00 0.81 0.81 50 1006.9
20260510020229 15 10 3.2 12.9 0.00 0.81 0.81 51 1006.9
20260510020221 15 339 6.4 12.9 0.00 0.81 0.81 50 1006.9
20260510020157 15 57 1.6 12.9 0.00 0.81 0.81 50 1006.9
20260510015937 15 359 8.0 14.5 0.00 0.81 0.81 50 1006.6
20260510015928 14 8 6.4 14.5 0.00 0.81 0.81 50 1006.6
20260510015705 15 297 6.4 17.7 0.00 0.81 0.81 51 1006.9
20260510015656 15 34 1.6 17.7 0.00 0.81 0.81 51 1006.9
20260510015435 15 72 3.2 24.1 0.00 0.81 0.81 52 1006.6
20260510015426 15 321 4.8 24.1 0.00 0.81 0.81 52 1006.6
20260510015205 15 330 6.4 24.1 0.00 0.81 0.81 51 1006.6
20260510015156 15 63 3.2 24.1 0.00 0.81 0.81 50 1006.1
20260510015147 15 300 8.0 24.1 0.00 0.81 0.81 51 1006.6
20260510014922 15 24 9.7 24.1 0.00 0.81 0.81 52 1006.6
20260510014918 15 346 8.0 24.1 0.00 0.81 0.81 53 1006.6
20260510014909 15 313 8.0 24.1 0.00 0.81 0.81 55 1006.1
20260510014644 15 329 6.4 24.1 0.00 0.81 0.81 58 1006.1
20260510014636 15 59 6.4 24.1 0.00 0.81 0.81 58 1006.1
20260510014625 14 338 8.0 14.5 0.00 0.81 0.81 57 1006.1
20260510014306 14 350 3.2 14.5 0.00 0.81 0.81 58 1006.1
20260510014201 14 318 4.8 6.4 0.00 0.81 0.81 61 1005.8
20260510014054 14 343 1.6 3.2 0.00 0.81 0.81 60 1005.8
20260510013948 14 331 1.6 3.2 0.00 0.81 0.81 59 1005.8
20260510013900 14 319 1.6 3.2 0.00 0.81 0.81 59 1005.8
20260510013843 14 319 3.2 3.2 0.00 0.81 0.81 59 1006.1
20260510013737 14 315 0.0 1.6 0.00 0.81 0.81 59 1006.1
20260510013631 14 323 1.6 3.2 0.00 0.81 0.81 58 1005.8
20260510013525 14 338 0.0 3.2 0.00 0.81 0.81 59 1005.8
20260510013433 14 310 0.0 3.2 0.00 0.81 0.81 59 1005.8
20260510013354 14 310 0.0 3.2 0.00 0.81 0.81 59 1005.8
20260510013314 14 311 1.6 3.2 0.00 0.81 0.81 59 1005.8
20260510013208 15 287 0.0 3.2 0.00 0.81 0.81 58 1005.8
20260510013102 15 286 0.0 3.2 0.00 0.81 0.81 58 1005.8
20260510012958 15 344 0.0 3.2 0.00 0.81 0.81 58 1005.8
20260510012851 15 354 1.6 3.2 0.00 0.81 0.81 57 1005.5
20260510012746 15 26 0.0 3.2 0.00 0.81 0.81 57 1005.5
20260510012640 15 338 1.6 3.2 0.00 0.81 0.81 57 1005.5
20260510012534 15 337 0.0 3.2 0.00 0.81 0.81 58 1005.8
20260510012428 15 337 0.0 3.2 0.00 0.81 0.81 57 1005.5
20260510012341 15 337 0.0 3.2 0.00 0.81 0.81 57 1005.5
20260510012323 15 337 1.6 3.2 0.00 0.81 0.81 57 1005.5
20260510012217 15 337 0.0 3.2 0.00 0.81 0.81 57 1005.5
20260510012111 15 338 0.0 3.2 0.00 0.81 0.81 57 1005.1
20260510012005 14 337 1.6 3.2 0.00 0.81 0.81 57 1005.1
20260510011859 14 327 0.0 1.6 0.00 0.81 0.81 58 1005.5
20260510011834 14 326 1.6 1.6 0.00 0.81 0.81 57 1005.5
20260510011755 15 335 1.6 1.6 0.00 0.81 0.81 58 1005.5
20260510011648 15 334 0.0 1.6 0.00 0.81 0.81 57 1005.5
20260510011543 15 354 1.6 1.6 0.00 0.81 0.81 57 1005.1
20260510011437 15 354 0.0 1.6 0.00 0.81 0.81 57 1005.5
20260510011330 15 354 0.0 1.6 0.00 0.81 0.81 57 1005.1
20260510011225 15 357 1.6 1.6 0.00 0.81 0.81 57 1005.1
20260510011119 15 4 1.6 1.6 0.00 0.81 0.81 57 1005.1
20260510011013 15 354 0.0 1.6 0.00 0.81 0.81 57 1005.1
20260510010907 15 354 0.0 1.6 0.00 0.81 0.81 56 1005.1
20260510010820 15 354 0.0 1.6 0.00 0.81 0.81 56 1005.1
20260510010802 15 354 0.0 1.6 0.00 0.81 0.81 56 1005.1
20260510010656 15 355 0.0 1.6 0.00 0.81 0.81 56 1005.1
20260510010552 15 355 0.0 1.6 0.00 0.81 0.81 55 1005.1
20260510010446 15 355 0.0 1.6 0.00 0.81 0.81 55 1005.1
20260510010340 15 354 0.0 1.6 0.00 0.81 0.81 55 1004.8
20260510010314 15 354 0.0 3.2 0.00 0.81 0.81 55 1004.8
20260510010234 15 355 1.6 3.2 0.00 0.81 0.81 55 1004.8
20260510010141 15 14 0.0 3.2 0.00 0.81 0.81 55 1005.1
20260510010024 15 15 0.0 3.2 0.00 0.81 0.81 55 1004.8
20260510005918 15 19 0.0 3.2 0.00 0.81 0.81 55 1004.8
20260510005811 15 6 0.0 3.2 0.00 0.81 0.81 55 1004.8
20260510005706 15 101 0.0 3.2 0.00 0.81 0.81 54 1005.1
20260510005601 15 8 0.0 4.8 0.00 0.81 0.81 54 1005.1
20260510005455 15 6 0.0 4.8 0.00 0.81 0.81 54 1004.8
20260510005349 15 345 1.6 4.8 0.00 0.81 0.81 54 1004.8
20260510005301 15 310 0.0 4.8 0.00 0.81 0.81 54 1005.1
20260510005244 15 310 0.0 4.8 0.00 0.81 0.81 54 1004.8
20260510005138 15 312 1.6 4.8 0.00 0.81 0.81 54 1004.8
20260510005032 16 306 1.6 4.8 0.00 0.81 0.81 54 1005.1
20260510004926 16 333 1.6 4.8 0.00 0.81 0.81 54 1004.8
20260510004820 16 305 0.0 4.8 0.00 0.81 0.81 54 1004.8
20260510004754 16 315 1.6 4.8 0.00 0.81 0.81 53 1004.8
20260510004715 16 315 1.6 4.8 0.00 0.81 0.81 53 1004.8
20260510004610 16 321 3.2 3.2 0.00 0.81 0.81 53 1004.8
20260510004504 16 316 3.2 3.2 0.00 0.81 0.81 53 1004.5
20260510004358 16 347 1.6 4.8 0.00 0.81 0.81 53 1004.8
20260510004252 16 315 0.0 4.8 0.00 0.81 0.81 54 1004.8
20260510004147 16 315 1.6 4.8 0.00 0.81 0.81 54 1004.8
20260510004040 16 339 1.6 4.8 0.00 0.81 0.81 53 1004.8
20260510003934 16 331 3.2 4.8 0.00 0.81 0.81 53 1004.8
20260510003830 16 355 1.6 4.8 0.00 0.81 0.81 53 1004.5
20260510003741 16 328 0.0 4.8 0.00 0.81 0.81 53 1004.8
20260510003723 16 328 0.0 4.8 0.00 0.81 0.81 53 1004.8
20260510003618 16 329 0.0 4.8 0.00 0.81 0.81 53 1004.5
20260510003513 16 326 1.6 4.8 0.00 0.81 0.81 53 1004.8
20260510003407 16 0 3.2 4.8 0.00 0.81 0.81 53 1004.8
20260510003301 16 306 1.6 4.8 0.00 0.81 0.81 52 1004.5
20260510003234 16 309 1.6 4.8 0.00 0.81 0.81 53 1004.5
20260510003154 16 314 1.6 4.8 0.00 0.81 0.81 52 1004.5
20260510003049 16 315 1.6 4.8 0.00 0.81 0.81 52 1004.5
20260510002943 16 298 1.6 4.8 0.00 0.81 0.81 52 1004.8
20260510002837 16 327 0.0 4.8 0.00 0.81 0.81 52 1004.5
20260510002731 16 306 1.6 4.8 0.00 0.81 0.81 52 1004.5
20260510002626 16 347 0.0 4.8 0.00 0.81 0.81 52 1004.5
20260510002519 16 237 1.6 4.8 0.00 0.81 0.81 52 1004.5
20260510002414 16 276 3.2 4.8 0.00 0.81 0.81 51 1004.5
20260510002308 16 314 1.6 3.2 0.00 0.81 0.81 53 1004.5
20260510002219 16 231 1.6 3.2 0.00 0.81 0.81 52 1004.5
20260510002202 16 301 3.2 3.2 0.00 0.81 0.81 52 1004.5
20260510002055 16 124 1.6 6.4 0.00 0.81 0.81 52 1004.5
20260510001950 16 283 0.0 6.4 0.00 0.81 0.81 52 1004.5
20260510001844 16 308 0.0 6.4 0.00 0.81 0.81 51 1004.5
20260510001739 16 326 1.6 6.4 0.00 0.81 0.81 51 1004.5
20260510001712 16 313 1.6 6.4 0.00 0.81 0.81 51 1004.5
20260510001645 16 251 3.2 6.4 0.00 0.81 0.81 51 1004.5
20260510001526 16 316 1.6 12.9 0.00 0.81 0.81 51 1004.5
20260510001422 16 351 0.0 12.9 0.00 0.81 0.81 52 1004.5
20260510001316 16 339 3.2 12.9 0.00 0.81 0.81 50 1004.5
20260510001209 16 320 3.2 12.9 0.00 0.81 0.81 50 1004.5
20260510001104 16 300 1.6 12.9 0.00 0.81 0.81 50 1004.5
20260510000959 16 283 3.2 12.9 0.00 0.81 0.81 50 1004.1
20260510000853 16 309 3.2 12.9 0.00 0.81 0.81 50 1004.5
20260510000747 16 247 1.6 12.9 0.00 0.81 0.81 50 1004.1
20260510000659 16 282 1.6 12.9 0.00 0.81 0.81 50 1004.1
20260510000642 16 315 3.2 12.9 0.00 0.81 0.81 50 1004.1
20260510000548 16 241 3.2 12.9 0.00 0.81 0.81 49 1004.1
20260510000433 17 224 3.2 12.9 0.00 0.81 0.81 50 1004.1
20260510000326 17 142 1.6 12.9 0.00 0.81 0.81 50 1004.1
20260510000219 17 272 1.6 12.9 0.00 0.81 0.81 49 1004.5
20260510000152 17 274 1.6 12.9 0.00 0.81 0.81 49 1004.5
20260510000112 17 325 3.2 12.9 0.00 0.81 0.81 49 1004.1
20260510000007 17 291 1.6 12.9 0.00 0.81 0.81 49 1004.1
20260509235901 17 312 8.0 12.9 0.00 0.81 0.81 48 1004.1
20260509235756 17 341 4.8 11.3 0.00 0.81 0.81 49 1004.1
20260509235649 17 302 1.6 14.5 0.00 0.81 0.81 48 1004.1
20260509235544 17 283 3.2 14.5 0.00 0.81 0.81 49 1004.1
20260509235439 17 274 6.4 14.5 0.00 0.81 0.81 48 1004.1
20260509235333 17 301 3.2 14.5 0.00 0.81 0.81 49 1003.8
20260509235227 17 217 3.2 14.5 0.00 0.81 0.81 49 1003.8
20260509235138 17 355 1.6 14.5 0.00 0.81 0.81 48 1004.1
20260509235122 17 335 3.2 14.5 0.00 0.81 0.81 48 1004.1
20260509235016 17 299 3.2 14.5 0.00 0.81 0.81 48 1004.1
20260509234911 17 0 0.0 14.5 0.00 0.81 0.81 48 1004.1
20260509234805 17 223 1.6 14.5 0.00 0.81 0.81 48 1004.1
20260509234659 17 285 6.4 9.7 0.00 0.81 0.81 47 1003.8
20260509234633 17 295 3.2 9.7 0.00 0.81 0.81 47 1004.1
20260509234553 17 8 3.2 9.7 0.00 0.81 0.81 48 1004.1
20260509234447 17 358 1.6 11.3 0.00 0.81 0.81 48 1003.8
20260509234342 17 327 4.8 11.3 0.00 0.81 0.81 47 1003.8
20260509234237 17 303 6.4 11.3 0.00 0.81 0.81 47 1004.1
20260509234131 17 235 1.6 11.3 0.00 0.81 0.81 47 1003.8
20260509234121 17 336 4.8 11.3 0.00 0.81 0.81 46 1003.8
20260509234117 17 290 3.2 11.3 0.00 0.81 0.81 47 1004.1
20260509234108 17 345 3.2 11.3 0.00 0.81 0.81 47 1004.1
20260509233845 17 297 3.2 11.3 0.00 0.81 0.81 47 1003.8
20260509233836 17 129 6.4 11.3 0.00 0.81 0.81 46 1003.8
20260509233602 17 330 4.8 11.3 0.00 0.81 0.81 46 1003.8
20260509233457 17 138 3.2 12.9 0.00 0.81 0.81 46 1003.4
20260509233415 18 79 4.8 17.7 0.00 0.81 0.81 45 1003.8
20260509233411 18 256 4.8 25.7 0.00 0.81 0.81 44 1003.4
20260509233407 17 51 1.6 12.9 0.00 0.81 0.81 45 1003.8
20260509233358 17 329 4.8 25.7 0.00 0.81 0.81 45 1003.8
20260509233350 18 299 8.0 25.7 0.00 0.81 0.81 44 1003.8
20260509233128 18 302 6.4 25.7 0.00 0.81 0.81 44 1003.8
20260509233119 18 309 3.2 25.7 0.00 0.81 0.81 46 1003.4
20260509232900 18 295 4.8 25.7 0.00 0.81 0.81 44 1003.8
20260509232852 18 191 1.6 25.7 0.00 0.81 0.81 44 1003.8
20260509232842 18 256 4.8 25.7 0.00 0.81 0.81 44 1003.4
20260509232622 18 303 11.3 25.7 0.00 0.81 0.81 43 1003.4
20260509232402 18 324 14.5 25.7 0.00 0.81 0.81 43 1003.8
20260509232354 18 216 6.4 29.0 0.00 0.81 0.81 43 1003.4
20260509232349 18 302 6.4 17.7 0.00 0.81 0.81 43 1003.8
20260509232341 18 276 6.4 17.7 0.00 0.81 0.81 44 1003.8
20260509232119 18 223 4.8 17.7 0.00 0.81 0.81 44 1003.8
20260509232110 18 359 8.0 17.7 0.00 0.81 0.81 44 1003.8
20260509231851 18 266 11.3 29.0 0.00 0.81 0.81 43 1003.8
20260509231842 18 251 8.0 29.0 0.00 0.81 0.81 43 1003.4
20260509231834 18 246 6.4 29.0 0.00 0.81 0.81 45 1003.8
20260509231600 18 267 6.4 29.0 0.00 0.81 0.81 45 1003.8
20260509231556 18 263 6.4 29.0 0.00 0.81 0.81 43 1003.8
20260509231548 18 236 1.6 29.0 0.00 0.81 0.81 44 1003.4
20260509231323 18 79 6.4 29.0 0.00 0.81 0.81 42 1003.8
20260509231315 18 21 9.7 29.0 0.00 0.81 0.81 42 1003.4
20260509231305 18 216 6.4 29.0 0.00 0.81 0.81 43 1003.4
20260509231043 18 207 9.7 25.7 0.00 0.81 0.81 41 1003.4
20260509231039 18 221 12.9 29.0 0.00 0.81 0.81 41 1003.4
20260509231030 18 335 11.3 25.7 0.00 0.81 0.81 42 1003.8
20260509230807 18 233 9.7 25.7 0.00 0.81 0.81 42 1003.4
20260509230758 18 242 8.0 25.7 0.00 0.81 0.81 41 1003.4
20260509230522 18 150 6.4 25.7 0.00 0.81 0.81 41 1003.4
20260509230417 19 234 17.7 25.7 0.00 0.81 0.81 40 1003.4
20260509230310 19 267 11.3 25.7 0.00 0.81 0.81 40 1003.8
20260509230300 19 277 9.7 25.7 0.00 0.81 0.81 41 1003.4
20260509230251 19 182 4.8 25.7 0.00 0.81 0.81 41 1003.4
20260509225954 19 290 3.2 25.7 0.00 0.81 0.81 41 1003.4
20260509225849 19 330 12.9 25.7 0.00 0.81 0.81 41 1003.4
20260509225741 19 206 9.7 25.7 0.00 0.81 0.81 41 1003.4
20260509225635 19 0 3.2 25.7 0.00 0.81 0.81 41 1003.4
20260509225529 18 337 3.2 25.7 0.00 0.81 0.81 42 1003.1
20260509225424 18 284 12.9 25.7 0.00 0.81 0.81 41 1003.4
20260509225318 18 313 4.8 20.9 0.00 0.81 0.81 43 1003.4
20260509225212 18 289 4.8 20.9 0.00 0.81 0.81 42 1003.4
20260509225106 18 328 6.4 20.9 0.00 0.81 0.81 41 1003.4
20260509225018 18 303 8.0 20.9 0.00 0.81 0.81 42 1003.1
20260509225001 18 118 6.4 20.9 0.00 0.81 0.81 41 1003.1
20260509224855 18 242 9.7 20.9 0.00 0.81 0.81 42 1003.4
20260509224749 18 318 8.0 20.9 0.00 0.81 0.81 41 1003.1
20260509224644 18 133 4.8 20.9 0.00 0.81 0.81 43 1003.4
20260509224536 18 303 1.6 20.9 0.00 0.81 0.81 44 1003.1
20260509224510 18 242 4.8 20.9 0.00 0.81 0.81 44 1003.1
20260509224430 18 270 6.4 20.9 0.00 0.81 0.81 43 1003.1
20260509224324 18 292 8.0 20.9 0.00 0.81 0.81 42 1003.1
20260509224219 18 223 4.8 22.5 0.00 0.81 0.81 43 1003.1
20260509224113 18 63 0.0 22.5 0.00 0.81 0.81 42 1003.1
20260509224007 18 195 4.8 22.5 0.00 0.81 0.81 44 1003.1
20260509223901 18 277 1.6 22.5 0.00 0.81 0.81 45 1003.1
20260509223756 18 283 3.2 22.5 0.00 0.81 0.81 43 1002.8
20260509223650 18 261 3.2 22.5 0.00 0.81 0.81 44 1003.1
20260509223544 18 282 6.4 22.5 0.00 0.81 0.81 42 1002.8
20260509223455 18 307 3.2 22.5 0.00 0.81 0.81 44 1002.8
20260509223438 18 313 4.8 22.5 0.00 0.81 0.81 42 1002.8
20260509223332 18 245 6.4 22.5 0.00 0.81 0.81 42 1003.1
20260509223227 19 226 12.9 22.5 0.00 0.81 0.81 42 1003.1
20260509223122 19 98 6.4 22.5 0.00 0.81 0.81 42 1002.8
20260509223016 19 213 9.7 22.5 0.00 0.81 0.81 40 1002.8
20260509222949 19 270 16.1 22.5 0.00 0.81 0.81 41 1002.8
20260509222910 19 189 3.2 17.7 0.00 0.81 0.81 42 1002.8
20260509222804 19 252 11.3 17.7 0.00 0.81 0.81 41 1002.8
20260509222659 19 112 6.4 17.7 0.00 0.81 0.81 42 1002.8
20260509222553 20 134 8.0 17.7 0.00 0.81 0.81 42 1002.8
20260509222447 20 293 8.0 11.3 0.00 0.81 0.81 41 1002.8
20260509222341 20 224 3.2 22.5 0.00 0.81 0.81 42 1002.8
20260509222236 20 345 1.6 25.7 0.00 0.81 0.81 43 1002.8
20260509222131 20 229 4.8 25.7 0.00 0.81 0.81 43 1002.8
20260509222024 20 207 4.8 25.7 0.00 0.81 0.81 42 1002.8
20260509221937 20 232 1.6 25.7 0.00 0.81 0.81 43 1002.8
20260509221919 20 251 1.6 25.7 0.00 0.81 0.81 43 1002.8
20260509221814 20 309 1.6 25.7 0.00 0.81 0.81 43 1002.8
20260509221709 20 254 6.4 25.7 0.00 0.81 0.81 42 1002.8
20260509221601 20 138 1.6 25.7 0.00 0.81 0.81 42 1002.8
20260509221455 20 257 6.4 25.7 0.00 0.81 0.81 42 1002.8
20260509221429 20 297 9.7 25.7 0.00 0.81 0.81 42 1002.3
20260509221350 20 260 14.5 25.7 0.00 0.81 0.81 42 1002.3
20260509221244 20 315 16.1 22.5 0.00 0.81 0.81 42 1002.3
20260509221138 20 278 3.2 17.7 0.00 0.81 0.81 45 1002.3
20260509221032 20 285 4.8 17.7 0.00 0.81 0.81 43 1002.3
20260509220926 20 234 6.4 17.7 0.00 0.81 0.81 43 1002.3
20260509220821 20 359 3.2 17.7 0.00 0.81 0.81 45 1002.3
20260509220716 19 118 3.2 17.7 0.00 0.81 0.81 43 1002.3
20260509220611 19 211 3.2 17.7 0.00 0.81 0.81 44 1002.3
20260509220505 19 259 3.2 17.7 0.00 0.81 0.81 43 1002.3
20260509220417 19 281 4.8 17.7 0.00 0.81 0.81 43 1002.3
20260509220358 19 274 6.4 11.3 0.00 0.81 0.81 44 1002.3
20260509220253 20 311 9.7 20.9 0.00 0.81 0.81 44 1002.3
20260509220147 20 272 3.2 20.9 0.00 0.81 0.81 43 1002.3
20260509220041 19 134 1.6 25.7 0.00 0.81 0.81 44 1002.0
20260509215936 19 219 1.6 25.7 0.00 0.81 0.81 44 1002.0
20260509215909 19 323 1.6 25.7 0.00 0.81 0.81 45 1002.0
20260509215828 19 164 1.6 25.7 0.00 0.81 0.81 43 1002.3
20260509215724 18 287 3.2 25.7 0.00 0.81 0.81 44 1002.3
20260509215617 18 91 1.6 25.7 0.00 0.81 0.81 44 1002.3
20260509215512 18 243 4.8 25.7 0.00 0.81 0.81 43 1002.3
20260509215405 18 253 9.7 25.7 0.00 0.81 0.81 43 1002.3
20260509215300 18 90 3.2 25.7 0.00 0.81 0.81 45 1002.3
20260509215155 19 240 11.3 25.7 0.00 0.81 0.81 43 1002.3
20260509215128 19 259 12.9 24.1 0.00 0.81 0.81 43 1002.3
20260509215124 19 236 4.8 24.1 0.00 0.81 0.81 45 1002.0
20260509215116 19 230 8.0 24.1 0.00 0.81 0.81 45 1002.3
20260509214837 19 197 12.9 24.1 0.00 0.81 0.81 44 1002.3
20260509214732 19 154 6.4 24.1 0.00 0.81 0.81 43 1002.0
20260509214627 20 325 4.8 24.1 0.00 0.81 0.81 42 1002.0
20260509214521 20 311 9.7 24.1 0.00 0.81 0.81 41 1002.0
20260509214415 20 266 11.3 35.4 0.00 0.81 0.81 41 1001.6
20260509214350 20 195 17.7 35.4 0.00 0.81 0.81 40 1001.6
20260509214311 20 211 11.3 35.4 0.00 0.81 0.81 42 1002.0
20260509214205 20 261 14.5 35.4 0.00 0.81 0.81 41 1002.0
20260509214101 20 325 3.2 35.4 0.00 0.81 0.81 42 1002.0
20260509213954 20 244 6.4 35.4 0.00 0.81 0.81 42 1002.0
20260509213848 20 242 4.8 35.4 0.00 0.81 0.81 43 1001.6
20260509213742 20 130 3.2 35.4 0.00 0.81 0.81 41 1001.6
20260509213637 20 271 3.2 35.4 0.00 0.81 0.81 42 1001.6
20260509213531 20 269 4.8 35.4 0.00 0.81 0.81 42 1001.6
20260509213426 19 224 16.1 35.4 0.00 0.81 0.81 41 1002.0
20260509213337 19 228 8.0 29.0 0.00 0.81 0.81 41 1002.0
20260509213322 19 245 4.8 29.0 0.00 0.81 0.81 41 1002.0
20260509213215 19 160 6.4 29.0 0.00 0.81 0.81 42 1002.0
20260509213110 19 276 17.7 29.0 0.00 0.81 0.81 40 1002.3
20260509213003 19 232 12.9 29.0 0.00 0.81 0.81 40 1002.0
20260509212859 19 89 9.7 29.0 0.00 0.81 0.81 40 1002.0
20260509212831 19 252 12.9 29.0 0.00 0.81 0.81 40 1001.6
20260509212752 19 248 14.5 29.0 0.00 0.81 0.81 40 1001.6
20260509212647 19 217 9.7 29.0 0.00 0.81 0.81 40 1002.0
20260509212539 19 243 8.0 29.0 0.00 0.81 0.81 40 1001.6
20260509212433 20 251 12.9 29.0 0.00 0.81 0.81 40 1002.0
20260509212327 20 241 19.3 29.0 0.00 0.81 0.81 40 1002.0
20260509212221 20 272 8.0 20.9 0.00 0.81 0.81 42 1002.0
20260509212116 20 228 9.7 20.9 0.00 0.81 0.81 40 1002.0
20260509212010 20 214 8.0 24.1 0.00 0.81 0.81 43 1002.0
20260509211904 20 212 9.7 24.1 0.00 0.81 0.81 42 1002.0
20260509211816 20 156 4.8 24.1 0.00 0.81 0.81 44 1001.6
20260509211759 20 284 4.8 24.1 0.00 0.81 0.81 44 1001.6
20260509211653 20 241 6.4 24.1 0.00 0.81 0.81 42 1001.6
20260509211547 20 236 4.8 25.7 0.00 0.81 0.81 41 1002.0
20260509211443 20 197 8.0 25.7 0.00 0.81 0.81 42 1001.6
20260509211336 20 273 9.7 25.7 0.00 0.81 0.81 41 1001.6
20260509211310 20 168 8.0 25.7 0.00 0.81 0.81 42 1001.6
20260509211244 20 299 9.7 25.7 0.00 0.81 0.81 42 1002.0
20260509211122 18 218 3.2 22.5 0.00 0.81 0.81 50 1002.8
20260509211117 19 225 8.0 25.7 0.00 0.81 0.81 45 1002.0
20260509211056 19 229 6.4 25.7 0.00 0.81 0.81 45 1002.0
20260509211047 19 284 6.4 25.7 0.00 0.81 0.81 42 1002.0
20260509210826 19 160 4.8 25.7 0.00 0.81 0.81 44 1002.0
20260509210822 19 197 9.7 25.7 0.00 0.81 0.81 42 1002.0
20260509210813 19 216 17.7 25.7 0.00 0.81 0.81 41 1002.0
20260509210554 19 120 9.7 22.5 0.00 0.81 0.81 42 1002.0
20260509210545 19 215 9.7 22.5 0.00 0.81 0.81 43 1002.0
20260509210324 19 214 9.7 20.9 0.00 0.81 0.81 44 1002.0
20260509210314 19 226 6.4 20.9 0.00 0.81 0.81 43 1002.0
20260509210310 19 238 11.3 20.9 0.00 0.81 0.81 42 1001.6
20260509210301 19 259 11.3 20.9 0.00 0.81 0.81 43 1001.6
20260509210041 18 244 6.4 22.5 0.00 0.81 0.81 48 1002.0
20260509210037 19 149 6.4 20.9 0.00 0.81 0.81 44 1002.0
20260509210028 19 201 12.9 20.9 0.00 0.81 0.81 43 1002.0
20260509205805 19 146 9.7 20.9 0.00 0.81 0.81 45 1002.0
20260509205801 19 256 8.0 20.9 0.00 0.81 0.81 47 1002.0
20260509205753 19 173 3.2 20.9 0.00 0.81 0.81 45 1002.0
20260509205744 19 268 9.7 20.9 0.00 0.81 0.81 45 1002.0
20260509205524 19 261 9.7 17.7 0.00 0.81 0.81 43 1002.0
20260509205515 19 234 6.4 20.9 0.00 0.81 0.81 45 1002.0
20260509205254 19 289 9.7 20.9 0.00 0.81 0.81 47 1002.0
20260509205250 19 206 3.2 20.9 0.00 0.81 0.81 46 1002.0
20260509205242 19 272 6.4 20.9 0.00 0.81 0.81 47 1002.0
20260509205022 19 196 4.8 20.9 0.00 0.81 0.81 46 1002.3
20260509205013 19 277 6.4 22.5 0.00 0.81 0.81 47 1002.0
20260509205005 18 220 12.9 22.5 0.00 0.81 0.81 46 1002.0
20260509204743 18 253 4.8 22.5 0.00 0.81 0.81 46 1002.0
20260509204734 18 265 8.0 22.5 0.00 0.81 0.81 45 1002.0
20260509204515 18 337 8.0 22.5 0.00 0.81 0.81 48 1002.3
20260509204511 18 189 8.0 22.5 0.00 0.81 0.81 46 1002.0
20260509204502 18 273 16.1 22.5 0.00 0.81 0.81 45 1002.3
20260509204239 18 337 8.0 22.5 0.00 0.81 0.81 48 1002.3
20260509204230 19 239 6.4 22.5 0.00 0.81 0.81 47 1002.3
20260509204222 19 253 14.5 22.5 0.00 0.81 0.81 46 1002.3
20260509203957 19 228 6.4 22.5 0.00 0.81 0.81 50 1002.8
20260509203948 19 259 3.2 22.5 0.00 0.81 0.81 51 1002.8
20260509203727 18 273 6.4 22.5 0.00 0.81 0.81 49 1002.3
20260509203723 18 252 6.4 22.5 0.00 0.81 0.81 50 1002.3
20260509203715 18 231 4.8 22.5 0.00 0.81 0.81 50 1002.3
20260509203455 18 273 3.2 22.5 0.00 0.81 0.81 53 1002.3
20260509203446 18 277 4.8 22.5 0.00 0.81 0.81 51 1002.3
20260509203438 18 218 3.2 22.5 0.00 0.81 0.81 50 1002.8
20260509203128 18 223 9.7 22.5 0.00 0.81 0.81 50 1002.8
20260509203022 18 228 11.3 22.5 0.00 0.81 0.81 50 1002.3
20260509202943 18 239 11.3 20.9 0.00 0.81 0.81 49 1002.8
20260509202939 18 247 6.4 22.5 0.00 0.81 0.81 51 1002.3
20260509202930 18 247 8.0 22.5 0.00 0.81 0.81 49 1002.8
20260509202705 18 223 9.7 20.9 0.00 0.81 0.81 51 1002.8
20260509202559 18 178 9.7 20.9 0.00 0.81 0.81 49 1002.8
20260509202453 18 208 6.4 20.9 0.00 0.81 0.81 53 1002.8
20260509202436 18 213 6.4 22.5 0.00 0.81 0.81 51 1002.8
20260509202432 18 16 12.9 22.5 0.00 0.81 0.81 51 1002.8
20260509202423 18 206 9.7 22.5 0.00 0.81 0.81 51 1002.8
20260509202137 18 278 12.9 22.5 0.00 0.81 0.81 50 1002.3
20260509202031 18 229 6.4 22.5 0.00 0.81 0.81 52 1002.8
20260509201938 18 289 8.0 22.5 0.00 0.81 0.81 54 1002.8
20260509201934 18 217 3.2 22.5 0.00 0.81 0.81 53 1002.8
20260509201925 18 345 6.4 22.5 0.00 0.81 0.81 49 1002.3
20260509201917 18 328 16.1 22.5 0.00 0.81 0.81 52 1002.8
20260509201609 18 156 16.1 22.5 0.00 0.81 0.81 52 1002.8
20260509201503 18 322 16.1 22.5 0.00 0.81 0.81 51 1002.8
20260509201358 18 226 9.7 22.5 0.00 0.81 0.81 53 1002.8
20260509201252 18 258 9.7 22.5 0.00 0.81 0.81 53 1002.3
20260509201146 19 214 11.3 16.1 0.00 0.81 0.81 54 1002.8
20260509201040 19 107 6.4 17.7 0.00 0.81 0.81 61 1002.8
20260509200934 18 240 8.0 17.7 0.00 0.81 0.81 60 1002.8
20260509200828 18 336 1.6 17.7 0.00 0.81 0.81 65 1002.8
20260509200723 18 324 3.2 17.7 0.00 0.81 0.81 65 1002.8
20260509200646 18 246 1.6 17.7 0.00 0.81 0.81 65 1002.8
20260509200631 18 352 4.8 17.7 0.00 0.81 0.81 66 1002.8
20260509200511 18 244 6.4 17.7 0.00 0.81 0.81 66 1002.8
20260509200405 18 303 3.2 17.7 0.00 0.81 0.81 68 1002.8
20260509200300 17 275 3.2 17.7 0.00 0.81 0.81 67 1002.8
20260509200154 17 243 3.2 17.7 0.00 0.81 0.81 67 1002.8
20260509200139 17 100 1.6 17.7 0.00 0.81 0.81 67 1002.8
20260509195942 17 236 3.2 14.5 0.00 0.81 0.81 68 1002.8
20260509195837 17 241 8.0 14.5 0.00 0.81 0.81 68 1002.8
20260509195732 17 233 9.7 14.5 0.00 0.81 0.81 66 1002.8
20260509195632 17 266 6.4 11.3 0.00 0.81 0.81 70 1003.1
20260509195625 17 268 4.8 11.3 0.00 0.81 0.81 71 1003.1
20260509195519 17 249 8.0 11.3 0.03 0.81 0.81 68 1002.8
20260509195413 17 309 3.2 11.3 0.03 0.81 0.81 69 1002.8
20260509195308 17 271 6.4 11.3 0.03 0.81 0.81 70 1002.8
20260509195203 17 247 3.2 11.3 0.05 0.81 0.81 72 1002.8
20260509195124 17 332 3.2 11.3 0.08 0.81 0.81 71 1002.8
20260509195056 16 271 4.8 11.3 0.08 0.81 0.81 70 1002.8
20260509194951 16 261 3.2 11.3 0.13 0.81 0.81 72 1002.3
20260509194845 16 295 3.2 11.3 0.20 0.81 0.81 72 1002.3
20260509194740 16 231 4.8 9.7 0.28 0.81 0.81 76 1002.8
20260509194634 16 227 1.6 6.4 0.33 0.81 0.81 75 1002.8
20260509194618 16 226 1.6 6.4 0.33 0.81 0.81 75 1002.8
20260509194529 16 277 4.8 6.4 0.38 0.81 0.81 76 1002.8
20260509194423 16 280 6.4 6.4 0.58 0.81 0.81 78 1002.8
20260509194317 16 259 3.2 6.4 0.71 0.81 0.81 78 1002.8
20260509194211 16 290 1.6 4.8 0.79 0.81 0.81 82 1002.8
20260509194114 16 315 3.2 4.8 0.81 0.81 0.81 81 1002.8
20260509194000 16 290 1.6 6.4 0.81 0.81 0.81 82 1002.8
20260509193854 16 322 3.2 6.4 0.81 0.81 0.81 80 1002.8
20260509193748 16 89 3.2 6.4 0.81 0.81 0.81 81 1002.8
20260509193642 16 224 3.2 9.7 0.81 0.81 0.81 82 1002.8
20260509193605 15 189 1.6 9.7 0.81 0.81 0.81 83 1002.8
20260509193537 15 245 1.6 9.7 0.81 0.81 0.81 83 1002.8
20260509193431 15 235 4.8 9.7 0.81 0.81 0.81 82 1002.8
20260509193325 15 219 0.0 9.7 0.81 0.81 0.81 85 1002.8
20260509193220 15 209 1.6 9.7 0.81 0.81 0.81 84 1002.8
20260509193114 15 224 3.2 9.7 0.81 0.81 0.81 84 1002.8
20260509193058 14 288 4.8 9.7 0.81 0.81 0.81 84 1002.8
20260509193008 14 224 3.2 9.7 0.81 0.81 0.81 86 1002.8
20260509192904 14 219 3.2 9.7 0.81 0.81 0.81 86 1002.8
20260509192757 14 254 4.8 9.7 0.81 0.81 0.81 87 1002.8
20260509192652 14 223 1.6 4.8 0.81 0.81 0.81 90 1002.8
20260509192552 14 220 3.2 4.8 0.81 0.81 0.81 90 1003.1
20260509192546 14 173 3.2 4.8 0.81 0.81 0.81 90 1002.8
20260509192440 14 291 3.2 4.8 0.81 0.81 0.81 90 1002.8
20260509192334 13 222 0.0 4.8 0.81 0.81 0.81 91 1003.1
20260509192229 13 237 1.6 4.8 0.81 0.81 0.81 90 1003.1
20260509192124 13 241 1.6 4.8 0.81 0.81 0.81 91 1003.1
20260509192045 13 154 0.0 4.8 0.81 0.81 0.81 91 1003.1
20260509192018 13 171 3.2 4.8 0.81 0.81 0.81 91 1003.1
20260509191912 13 236 3.2 4.8 0.81 0.81 0.81 91 1003.1
20260509191806 13 225 1.6 4.8 0.81 0.81 0.81 91 1003.4
20260509191659 12 134 1.6 4.8 0.81 0.81 0.81 92 1003.1
20260509191553 12 229 1.6 4.8 0.81 0.81 0.81 91 1003.4
20260509191537 12 197 1.6 4.8 0.81 0.81 0.81 92 1003.4
20260509191447 12 240 3.2 4.8 0.81 0.81 0.81 91 1003.4
20260509191341 12 216 1.6 4.8 0.81 0.81 0.81 91 1003.1
20260509191236 12 234 3.2 4.8 0.81 0.81 0.81 91 1003.1
20260509191130 11 174 3.2 4.8 0.81 0.81 0.81 92 1003.1
20260509191031 11 228 1.6 4.8 0.81 0.81 0.81 91 1003.4
20260509191025 11 231 1.6 4.8 0.81 0.81 0.81 91 1003.4
20260509190919 11 184 3.2 4.8 0.81 0.81 0.81 91 1003.4
20260509190813 11 228 1.6 4.8 0.81 0.81 0.81 91 1003.1
20260509190708 11 212 1.6 4.8 0.81 0.81 0.81 91 1003.1
20260509190603 11 194 3.2 4.8 0.81 0.81 0.81 91 1003.4
20260509190525 11 221 1.6 4.8 0.81 0.81 0.81 91 1003.4
20260509190457 11 232 3.2 9.7 0.81 0.81 0.81 91 1003.4
20260509190351 11 211 3.2 14.5 0.81 0.81 0.81 91 1003.4
20260509190246 10 265 1.6 16.1 0.81 0.81 0.81 91 1003.4
20260509190140 10 221 3.2 16.1 0.81 0.81 0.81 90 1003.4
20260509190034 10 211 1.6 16.1 0.81 0.81 0.81 90 1003.4
20260509190019 10 191 3.2 16.1 0.81 0.81 0.81 90 1003.4
20260509185929 10 227 3.2 16.1 0.81 0.81 0.81 90 1003.4
20260509185823 10 261 3.2 16.1 0.81 0.81 0.81 90 1003.4
20260509185717 10 189 3.2 16.1 0.81 0.81 0.81 90 1003.4
20260509185612 10 232 1.6 16.1 0.79 0.79 0.79 90 1003.4
20260509185511 10 221 6.4 16.1 0.79 0.79 0.79 89 1003.4
20260509185505 10 227 3.2 16.1 0.79 0.79 0.79 89 1003.4
20260509185359 10 242 3.2 16.1 0.79 0.79 0.79 89 1003.4
20260509185254 10 143 8.0 22.5 0.76 0.76 0.79 89 1003.4
20260509185148 10 216 6.4 33.8 0.74 0.74 0.76 89 1003.8
20260509185043 10 196 4.8 33.8 0.69 0.69 0.74 89 1003.4
20260509185006 10 241 3.2 33.8 0.69 0.69 0.74 89 1003.4
20260509184937 10 121 3.2 33.8 0.61 0.61 0.69 88 1003.4
20260509184831 10 169 3.2 37.0 0.53 0.53 0.58 88 1003.8
20260509184727 10 217 8.0 37.0 0.48 0.48 0.51 87 1003.8
20260509184621 11 229 3.2 37.0 0.43 0.43 0.48 86 1003.8
20260509184515 12 91 4.8 37.0 0.23 0.23 0.41 84 1003.4
20260509184459 12 120 11.3 37.0 0.23 0.23 0.33 83 1003.4
20260509184409 13 253 12.9 37.0 0.10 0.10 0.20 80 1003.8
20260509184304 15 315 8.0 37.0 0.03 0.03 0.08 75 1003.8
20260509184158 16 263 22.5 37.0 0.00 0.00 0.03 69 1003.4
20260509184052 16 227 9.7 37.0 0.00 0.00 0.00 64 1003.4
20260509183950 17 302 16.1 37.0 0.00 0.00 0.00 58 1003.4
20260509183945 18 337 20.9 37.0 0.00 0.00 0.00 56 1002.3
20260509183840 18 23 6.4 20.9 0.00 0.00 0.00 56 1002.3
20260509183733 18 279 12.9 20.9 0.00 0.00 0.00 55 1002.3
20260509183627 18 273 6.4 20.9 0.00 0.00 0.00 56 1002.0
20260509183523 18 304 4.8 20.9 0.00 0.00 0.00 54 1002.3
20260509183444 18 221 4.8 20.9 0.00 0.00 0.00 54 1002.3
20260509183416 18 271 9.7 20.9 0.00 0.00 0.00 53 1002.0
20260509183311 18 243 4.8 20.9 0.00 0.00 0.00 53 1002.0
20260509183205 18 219 11.3 20.9 0.00 0.00 0.00 53 1002.0
20260509183059 18 218 6.4 17.7 0.00 0.00 0.00 54 1002.0
20260509182938 18 228 9.7 20.9 0.00 0.00 0.00 54 1002.0
20260509182848 18 229 4.8 20.9 0.00 0.00 0.00 54 1002.0
20260509182742 18 249 4.8 20.9 0.00 0.00 0.00 54 1002.0
20260509182637 18 256 9.7 20.9 0.00 0.00 0.00 54 1001.6
20260509182531 18 238 6.4 20.9 0.00 0.00 0.00 55 1001.6
20260509182432 18 201 4.8 20.9 0.00 0.00 0.00 55 1002.0
20260509182426 18 308 6.4 20.9 0.00 0.00 0.00 55 1002.0
20260509182320 18 206 11.3 20.9 0.00 0.00 0.00 55 1001.6
20260509182215 18 242 6.4 27.4 0.00 0.00 0.00 55 1001.6
20260509182121 18 197 6.4 27.4 0.00 0.00 0.00 55 1001.6
20260509182002 18 281 11.3 27.4 0.00 0.00 0.00 55 1001.6
20260509181925 18 246 9.7 27.4 0.00 0.00 0.00 56 1001.6
20260509181857 18 197 11.3 27.4 0.00 0.00 0.00 55 1001.6
20260509181751 18 221 8.0 29.0 0.00 0.00 0.00 56 1001.6
20260509181645 18 232 14.5 29.0 0.00 0.00 0.00 55 1001.6
20260509181538 18 205 16.1 29.0 0.00 0.00 0.00 55 1001.3
20260509181433 18 201 14.5 29.0 0.00 0.00 0.00 55 1001.6
20260509181418 19 194 11.3 29.0 0.00 0.00 0.00 55 1001.6
20260509181327 19 205 19.3 29.0 0.00 0.00 0.00 54 1001.6
20260509181221 18 153 8.0 29.0 0.00 0.00 0.00 56 1001.6
20260509181117 19 186 12.9 29.0 0.00 0.00 0.00 55 1001.6
20260509181011 19 228 9.7 29.0 0.00 0.00 0.00 55 1001.6
20260509180911 19 248 14.5 37.0 0.00 0.00 0.00 55 1001.6
20260509180905 19 231 12.9 37.0 0.00 0.00 0.00 55 1001.6
20260509180759 19 223 6.4 37.0 0.00 0.00 0.00 55 1001.6
20260509180654 19 218 9.7 37.0 0.00 0.00 0.00 55 1001.6
20260509180548 19 216 9.7 37.0 0.00 0.00 0.00 55 1001.6
20260509180442 18 243 12.9 37.0 0.00 0.00 0.00 54 1001.6
20260509180404 18 220 4.8 37.0 0.00 0.00 0.00 56 1001.6
20260509180337 18 191 9.7 37.0 0.00 0.00 0.00 55 1001.6
20260509180231 18 123 17.7 37.0 0.00 0.00 0.00 55 1001.6